Time,TemperatureF,DewpointF,PressureIn,WindDirection,WindDirectionDegrees,WindSpeedMPH,WindSpeedGustMPH,Humidity,HourlyPrecipIn,Conditions,Clouds,dailyrainin,SoftwareType,DateUTC
2013-04-17 00:00:00,58.3,29.2,29.84,SSW,206,2.4,5.4,33,0.00,,,0.00,WUHU216HW,2013-04-17 07:00:00,
2013-04-17 00:05:00,58.3,29.2,29.84,SSW,203,2.5,5.4,33,0.00,,,0.00,WUHU216HW,2013-04-17 07:05:00,
2013-04-17 00:10:00,58.1,29.0,29.84,South,180,1.6,2.5,33,0.00,,,0.00,WUHU216HW,2013-04-17 07:10:00,
2013-04-17 00:15:00,58.1,28.4,29.84,SSW,194,0.7,2.5,32,0.00,,,0.00,WUHU216HW,2013-04-17 07:15:00,
2013-04-17 00:20:00,58.0,28.2,29.84,SSW,203,1.8,2.7,32,0.00,,,0.00,WUHU216HW,2013-04-17 07:20:00,
2013-04-17 00:25:00,58.0,28.2,29.84,South,174,1.7,2.9,32,0.00,,,0.00,WUHU216HW,2013-04-17 07:25:00,
2013-04-17 00:30:00,58.0,27.5,29.84,SSW,194,2.3,2.9,31,0.00,,,0.00,WUHU216HW,2013-04-17 07:30:00,
2013-04-17 00:35:00,57.8,28.0,29.84,SSW,203,2.2,2.9,32,0.00,,,0.00,WUHU216HW,2013-04-17 07:35:00,
2013-04-17 00:40:00,57.6,27.1,29.84,WSW,248,1.1,2.5,31,0.00,,,0.00,WUHU216HW,2013-04-17 07:40:00,
2013-04-17 00:45:00,57.4,27.0,29.84,SSW,193,1.0,2.5,31,0.00,,,0.00,WUHU216HW,2013-04-17 07:45:00,
2013-04-17 00:50:00,57.2,26.8,29.83,SSW,201,0.5,2.5,31,0.00,,,0.00,WUHU216HW,2013-04-17 07:50:00,
2013-04-17 00:55:00,56.9,26.5,29.83,SSE,158,0.9,2.5,31,0.00,,,0.00,WUHU216HW,2013-04-17 07:55:00,
2013-04-17 01:00:00,56.9,26.5,29.84,SSW,192,0.3,2.5,31,0.00,,,0.00,WUHU216HW,2013-04-17 08:00:00,
2013-04-17 01:05:00,56.5,26.8,29.83,SSW,203,0.2,1.3,32,0.00,,,0.00,WUHU216HW,2013-04-17 08:05:00,
2013-04-17 01:10:00,56.3,26.7,29.83,SW,225,0.9,0.9,32,0.00,,,0.00,WUHU216HW,2013-04-17 08:10:00,
2013-04-17 01:15:00,56.2,26.6,29.82,SSW,203,0.4,1.1,32,0.00,,,0.00,WUHU216HW,2013-04-17 08:15:00,
2013-04-17 01:20:00,56.0,26.4,29.83,SW,225,0.7,1.1,32,0.00,,,0.00,WUHU216HW,2013-04-17 08:20:00,
2013-04-17 01:25:00,55.6,26.0,29.82,SSW,195,0.6,1.1,32,0.00,,,0.00,WUHU216HW,2013-04-17 08:25:00,
2013-04-17 01:30:00,55.3,25.8,29.82,SW,225,0.0,1.1,32,0.00,,,0.00,WUHU216HW,2013-04-17 08:30:00,
2013-04-17 01:35:00,55.3,25.8,29.81,South,173,0.3,0.4,32,0.00,,,0.00,WUHU216HW,2013-04-17 08:35:00,
2013-04-17 01:40:00,55.1,25.6,29.81,South,175,0.4,0.9,32,0.00,,,0.00,WUHU216HW,2013-04-17 08:40:00,
2013-04-17 01:45:00,55.1,26.3,29.81,SSW,203,0.6,1.3,33,0.00,,,0.00,WUHU216HW,2013-04-17 08:45:00,
2013-04-17 01:50:00,55.1,26.3,29.81,SSW,208,0.6,1.3,33,0.00,,,0.00,WUHU216HW,2013-04-17 08:50:00,
2013-04-17 01:55:00,54.9,26.1,29.81,SSE,158,0.0,0.9,33,0.00,,,0.00,WUHU216HW,2013-04-17 08:55:00,
2013-04-17 02:00:00,54.5,25.8,29.80,SSW,197,0.5,1.1,33,0.00,,,0.00,WUHU216HW,2013-04-17 09:00:00,
2013-04-17 02:05:00,54.4,25.7,29.80,SSW,203,0.4,1.1,33,0.00,,,0.00,WUHU216HW,2013-04-17 09:05:00,
2013-04-17 02:10:00,54.2,26.2,29.80,WSW,251,0.2,0.7,34,0.00,,,0.00,WUHU216HW,2013-04-17 09:10:00,
2013-04-17 02:15:00,54.0,26.1,29.80,SW,225,0.0,0.4,34,0.00,,,0.00,WUHU216HW,2013-04-17 09:15:00,
2013-04-17 02:20:00,53.6,25.7,29.80,SW,225,0.0,0.2,34,0.00,,,0.00,WUHU216HW,2013-04-17 09:20:00,
2013-04-17 02:25:00,53.6,26.5,29.80,SW,225,0.0,0.0,35,0.00,,,0.00,WUHU216HW,2013-04-17 09:25:00,
2013-04-17 02:30:00,53.5,26.3,29.80,SW,225,0.0,0.0,35,0.00,,,0.00,WUHU216HW,2013-04-17 09:30:00,
2013-04-17 02:35:00,53.3,26.8,29.80,SW,225,0.0,0.0,36,0.00,,,0.00,WUHU216HW,2013-04-17 09:35:00,
2013-04-17 02:40:00,53.3,26.8,29.80,SSW,200,0.6,1.1,36,0.00,,,0.00,WUHU216HW,2013-04-17 09:40:00,
2013-04-17 02:45:00,53.3,26.8,29.80,South,177,0.4,1.1,36,0.00,,,0.00,WUHU216HW,2013-04-17 09:45:00,
2013-04-17 02:50:00,53.6,27.2,29.80,SSE,158,0.4,1.1,36,0.00,,,0.00,WUHU216HW,2013-04-17 09:50:00,
2013-04-17 02:55:00,53.6,27.2,29.80,SSE,158,1.1,1.1,36,0.00,,,0.00,WUHU216HW,2013-04-17 09:55:00,
2013-04-17 03:00:00,53.8,28.0,29.80,SE,139,0.6,1.3,37,0.00,,,0.00,WUHU216HW,2013-04-17 10:00:00,
2013-04-17 03:05:00,53.6,27.2,29.80,SE,146,0.3,1.3,36,0.00,,,0.00,WUHU216HW,2013-04-17 10:05:00,
2013-04-17 03:10:00,53.5,27.6,29.80,SSE,158,0.2,0.7,37,0.00,,,0.00,WUHU216HW,2013-04-17 10:10:00,
2013-04-17 03:15:00,52.9,27.2,29.80,South,180,0.7,1.1,37,0.00,,,0.00,WUHU216HW,2013-04-17 10:15:00,
2013-04-17 03:20:00,52.7,27.0,29.80,SSW,201,0.5,1.1,37,0.00,,,0.00,WUHU216HW,2013-04-17 10:20:00,
2013-04-17 03:25:00,52.6,26.8,29.80,SSW,192,0.3,1.1,37,0.00,,,0.00,WUHU216HW,2013-04-17 10:25:00,
2013-04-17 03:30:00,52.6,26.8,29.79,South,173,0.5,0.9,37,0.00,,,0.00,WUHU216HW,2013-04-17 10:30:00,
2013-04-17 03:35:00,52.2,26.6,29.79,SSE,158,0.0,0.9,37,0.00,,,0.00,WUHU216HW,2013-04-17 10:35:00,
2013-04-17 03:40:00,52.0,27.1,29.79,SSE,158,0.0,0.4,38,0.00,,,0.00,WUHU216HW,2013-04-17 10:40:00,
2013-04-17 03:45:00,51.7,26.7,29.79,South,180,0.4,0.4,38,0.00,,,0.00,WUHU216HW,2013-04-17 10:45:00,
2013-04-17 03:50:00,51.7,26.7,29.79,SSE,158,0.2,0.4,38,0.00,,,0.00,WUHU216HW,2013-04-17 10:50:00,
2013-04-17 03:55:00,51.5,26.6,29.79,South,180,0.7,1.1,38,0.00,,,0.00,WUHU216HW,2013-04-17 10:55:00,
2013-04-17 04:00:00,51.5,27.3,29.79,SW,228,0.4,1.1,39,0.00,,,0.00,WUHU216HW,2013-04-17 11:00:00,
2013-04-17 04:05:00,51.3,27.1,29.80,South,180,0.9,0.9,39,0.00,,,0.00,WUHU216HW,2013-04-17 11:05:00,
2013-04-17 04:10:00,51.3,27.1,29.80,WSW,248,0.2,0.9,39,0.00,,,0.00,WUHU216HW,2013-04-17 11:10:00,
2013-04-17 04:15:00,51.1,27.6,29.80,SSW,203,0.4,1.1,40,0.00,,,0.00,WUHU216HW,2013-04-17 11:15:00,
2013-04-17 04:20:00,51.1,27.6,29.80,South,180,0.3,1.3,40,0.00,,,0.00,WUHU216HW,2013-04-17 11:20:00,
2013-04-17 04:25:00,51.3,27.8,29.80,SSE,168,0.3,1.3,40,0.00,,,0.00,WUHU216HW,2013-04-17 11:25:00,
2013-04-17 04:30:00,51.3,27.8,29.80,SSW,203,0.3,1.1,40,0.00,,,0.00,WUHU216HW,2013-04-17 11:30:00,
2013-04-17 04:35:00,51.7,28.6,29.80,SSW,204,0.7,1.3,41,0.00,,,0.00,WUHU216HW,2013-04-17 11:35:00,
2013-04-17 04:40:00,51.8,29.3,29.80,SE,135,1.1,1.6,42,0.00,,,0.00,WUHU216HW,2013-04-17 11:40:00,
2013-04-17 04:45:00,52.4,30.4,29.80,SSW,203,1.8,4.3,43,0.00,,,0.00,WUHU216HW,2013-04-17 11:45:00,
2013-04-17 04:50:00,52.6,31.1,29.81,SSW,205,1.8,4.3,44,0.00,,,0.00,WUHU216HW,2013-04-17 11:50:00,
2013-04-17 04:55:00,52.7,32.4,29.81,South,183,2.9,5.4,46,0.00,,,0.00,WUHU216HW,2013-04-17 11:55:00,
2013-04-17 05:00:00,53.1,32.8,29.81,SW,225,2.5,5.4,46,0.00,,,0.00,WUHU216HW,2013-04-17 12:00:00,
2013-04-17 05:05:00,53.3,33.0,29.81,SW,222,0.7,2.9,46,0.00,,,0.00,WUHU216HW,2013-04-17 12:05:00,
2013-04-17 05:10:00,53.6,33.2,29.81,SSW,203,1.3,2.5,46,0.00,,,0.00,WUHU216HW,2013-04-17 12:10:00,
2013-04-17 05:15:00,53.6,33.2,29.82,SSE,158,1.6,2.5,46,0.00,,,0.00,WUHU216HW,2013-04-17 12:15:00,
2013-04-17 05:20:00,53.6,33.2,29.82,South,175,0.9,2.2,46,0.00,,,0.00,WUHU216HW,2013-04-17 12:20:00,
2013-04-17 05:25:00,53.6,33.2,29.82,SSW,203,1.8,4.0,46,0.00,,,0.00,WUHU216HW,2013-04-17 12:25:00,
2013-04-17 05:30:00,53.6,33.2,29.82,SSE,155,1.4,4.0,46,0.00,,,0.00,WUHU216HW,2013-04-17 12:30:00,
2013-04-17 05:35:00,53.8,33.4,29.82,SSW,207,1.6,2.9,46,0.00,,,0.00,WUHU216HW,2013-04-17 12:35:00,
2013-04-17 05:40:00,53.8,33.4,29.83,SSW,194,1.9,3.6,46,0.00,,,0.00,WUHU216HW,2013-04-17 12:40:00,
2013-04-17 05:45:00,53.8,32.9,29.83,SSE,158,1.1,4.0,45,0.00,,,0.00,WUHU216HW,2013-04-17 12:45:00,
2013-04-17 05:50:00,53.8,32.9,29.83,SSW,196,1.1,4.0,45,0.00,,,0.00,WUHU216HW,2013-04-17 12:50:00,
2013-04-17 05:55:00,54.0,33.6,29.83,SSW,193,3.2,4.5,46,0.00,,,0.00,WUHU216HW,2013-04-17 12:55:00,
2013-04-17 06:00:00,53.8,33.4,29.84,SSW,203,2.5,4.5,46,0.00,,,0.00,WUHU216HW,2013-04-17 13:00:00,
2013-04-17 06:05:00,53.8,33.9,29.84,SW,225,2.5,3.1,47,0.00,,,0.00,WUHU216HW,2013-04-17 13:05:00,
2013-04-17 06:10:00,54.0,34.1,29.84,WSW,248,2.2,2.7,47,0.00,,,0.00,WUHU216HW,2013-04-17 13:10:00,
2013-04-17 06:15:00,53.8,34.5,29.84,SW,221,1.2,2.7,48,0.00,,,0.00,WUHU216HW,2013-04-17 13:15:00,
2013-04-17 06:20:00,53.8,34.5,29.84,SSW,203,1.7,3.1,48,0.00,,,0.00,WUHU216HW,2013-04-17 13:20:00,
2013-04-17 06:25:00,53.8,34.5,29.85,SSE,158,1.1,3.4,48,0.00,,,0.00,WUHU216HW,2013-04-17 13:25:00,
2013-04-17 06:30:00,53.6,35.5,29.84,SSE,164,2.1,3.4,50,0.00,,,0.00,WUHU216HW,2013-04-17 13:30:00,
2013-04-17 06:35:00,53.6,35.5,29.85,SW,225,3.1,5.1,50,0.00,,,0.00,WUHU216HW,2013-04-17 13:35:00,
2013-04-17 06:40:00,53.6,35.5,29.85,SSE,158,4.7,5.1,50,0.00,,,0.00,WUHU216HW,2013-04-17 13:40:00,
2013-04-17 06:45:00,53.8,35.7,29.85,South,180,4.3,5.1,50,0.00,,,0.00,WUHU216HW,2013-04-17 13:45:00,
2013-04-17 06:50:00,53.8,36.1,29.85,SSW,213,3.0,5.4,51,0.00,,,0.00,WUHU216HW,2013-04-17 13:50:00,
2013-04-17 06:55:00,54.0,36.3,29.86,South,186,3.3,5.8,51,0.00,,,0.00,WUHU216HW,2013-04-17 13:55:00,
2013-04-17 07:00:00,54.0,36.3,29.86,South,180,3.8,5.8,51,0.00,,,0.00,WUHU216HW,2013-04-17 14:00:00,
2013-04-17 07:05:00,54.0,37.6,29.86,SW,225,4.7,4.9,54,0.00,,,0.00,WUHU216HW,2013-04-17 14:05:00,
2013-04-17 07:10:00,54.2,37.8,29.86,SW,214,2.4,4.9,54,0.00,,,0.00,WUHU216HW,2013-04-17 14:10:00,
2013-04-17 07:15:00,54.2,39.7,29.87,SW,225,4.0,5.8,58,0.00,,,0.00,WUHU216HW,2013-04-17 14:15:00,
2013-04-17 07:20:00,54.2,39.3,29.87,SSW,196,4.1,5.8,57,0.00,,,0.00,WUHU216HW,2013-04-17 14:20:00,
2013-04-17 07:25:00,54.4,40.8,29.87,SW,225,4.5,5.4,60,0.00,,,0.00,WUHU216HW,2013-04-17 14:25:00,
2013-04-17 07:30:00,54.4,39.9,29.86,South,189,3.4,6.9,58,0.00,,,0.00,WUHU216HW,2013-04-17 14:30:00,
2013-04-17 07:35:00,54.4,40.8,29.87,West,270,3.4,6.9,60,0.00,,,0.00,WUHU216HW,2013-04-17 14:35:00,
2013-04-17 07:40:00,54.4,40.3,29.87,South,181,3.4,6.3,59,0.00,,,0.00,WUHU216HW,2013-04-17 14:40:00,
2013-04-17 07:45:00,54.4,40.3,29.87,SW,236,2.1,6.3,59,0.00,,,0.00,WUHU216HW,2013-04-17 14:45:00,
2013-04-17 07:50:00,54.7,41.1,29.87,East,90,4.3,5.4,60,0.00,,,0.00,WUHU216HW,2013-04-17 14:50:00,
2013-04-17 07:55:00,54.7,42.0,29.87,WSW,248,4.9,6.5,62,0.00,,,0.00,WUHU216HW,2013-04-17 14:55:00,
2013-04-17 08:00:00,54.9,41.7,29.88,SW,218,4.3,6.5,61,0.00,,,0.00,WUHU216HW,2013-04-17 15:00:00,
2013-04-17 08:05:00,55.1,41.4,29.88,SSE,158,6.9,6.9,60,0.00,,,0.00,WUHU216HW,2013-04-17 15:05:00,
2013-04-17 08:10:00,55.3,41.6,29.88,SW,225,3.1,6.9,60,0.00,,,0.00,WUHU216HW,2013-04-17 15:10:00,
2013-04-17 08:15:00,55.6,41.5,29.88,South,180,2.5,6.9,59,0.00,,,0.00,WUHU216HW,2013-04-17 15:15:00,
2013-04-17 08:20:00,55.8,41.7,29.88,SW,225,4.3,6.3,59,0.00,,,0.00,WUHU216HW,2013-04-17 15:20:00,
2013-04-17 08:25:00,56.0,41.9,29.88,West,270,5.1,6.9,59,0.00,,,0.00,WUHU216HW,2013-04-17 15:25:00,
2013-04-17 08:30:00,56.0,41.4,29.88,SW,225,6.0,6.9,58,0.00,,,0.00,WUHU216HW,2013-04-17 15:30:00,
2013-04-17 08:35:00,56.0,41.4,29.88,SSW,192,4.3,6.9,58,0.00,,,0.00,WUHU216HW,2013-04-17 15:35:00,
2013-04-17 08:40:00,56.2,41.0,29.88,WSW,248,4.7,7.6,57,0.00,,,0.00,WUHU216HW,2013-04-17 15:40:00,
2013-04-17 08:51:00,57.2,40.8,29.88,SSW,203,5.6,5.6,54,0.00,,,0.00,WUHU216HW,2013-04-17 15:51:00,
2013-04-17 08:57:00,57.4,41.0,29.88,SSW,207,4.1,5.8,54,0.00,,,0.00,WUHU216HW,2013-04-17 15:57:00,
2013-04-17 09:02:00,57.6,40.6,29.88,SSW,203,8.1,8.1,53,0.00,,,0.00,WUHU216HW,2013-04-17 16:02:00,
2013-04-17 09:07:00,57.4,40.0,29.88,SW,234,3.0,8.1,52,0.00,,,0.00,WUHU216HW,2013-04-17 16:07:00,
2013-04-17 09:12:00,58.0,39.5,29.88,SSW,203,5.1,8.1,50,0.00,,,0.00,WUHU216HW,2013-04-17 16:12:00,
2013-04-17 09:17:00,58.0,39.0,29.88,WSW,248,6.3,6.9,49,0.00,,,0.00,WUHU216HW,2013-04-17 16:17:00,
2013-04-17 09:22:00,58.0,40.0,29.89,SW,224,5.8,7.2,51,0.00,,,0.00,WUHU216HW,2013-04-17 16:22:00,
2013-04-17 09:27:00,58.5,40.5,29.89,SSW,203,7.6,7.8,51,0.00,,,0.00,WUHU216HW,2013-04-17 16:27:00,
2013-04-17 09:32:00,58.7,40.1,29.88,WSW,248,7.6,7.8,50,0.00,,,0.00,WUHU216HW,2013-04-17 16:32:00,
2013-04-17 09:37:00,58.9,40.3,29.89,SW,232,4.6,7.6,50,0.00,,,0.00,WUHU216HW,2013-04-17 16:37:00,
2013-04-17 09:42:00,58.3,39.9,29.89,SW,226,4.7,7.6,50,0.00,,,0.00,WUHU216HW,2013-04-17 16:42:00,
2013-04-17 09:47:00,58.3,39.2,29.89,SSW,197,5.0,8.3,49,0.00,,,0.00,WUHU216HW,2013-04-17 16:47:00,
2013-04-17 09:52:00,58.9,40.3,29.89,WSW,245,4.4,8.3,50,0.00,,,0.00,WUHU216HW,2013-04-17 16:52:00,
2013-04-17 09:57:00,59.6,41.0,29.89,SSE,158,7.4,7.4,50,0.00,,,0.00,WUHU216HW,2013-04-17 16:57:00,
2013-04-17 10:02:00,60.8,40.4,29.89,SW,217,3.8,7.4,47,0.00,,,0.00,WUHU216HW,2013-04-17 17:02:00,
2013-04-17 10:07:00,61.9,39.1,29.89,SW,214,2.7,7.8,43,0.00,,,0.00,WUHU216HW,2013-04-17 17:07:00,
2013-04-17 10:12:00,62.6,37.3,29.89,SW,217,3.8,7.8,39,0.00,,,0.00,WUHU216HW,2013-04-17 17:12:00,
2013-04-17 10:17:00,63.4,37.9,29.89,SW,228,4.6,6.9,39,0.00,,,0.00,WUHU216HW,2013-04-17 17:17:00,
2013-04-17 10:22:00,63.0,34.0,29.90,SW,225,4.9,7.6,34,0.00,,,0.00,WUHU216HW,2013-04-17 17:22:00,
2013-04-17 10:27:00,61.9,31.6,29.90,SW,225,4.7,7.6,32,0.00,,,0.00,WUHU216HW,2013-04-17 17:27:00,
2013-04-17 10:32:00,61.7,30.0,29.90,WSW,248,5.4,6.3,30,0.00,,,0.00,WUHU216HW,2013-04-17 17:32:00,
2013-04-17 10:37:00,62.6,28.8,29.90,SW,225,6.3,6.9,28,0.00,,,0.00,WUHU216HW,2013-04-17 17:37:00,
2013-04-17 10:42:00,63.0,30.2,29.91,SW,218,3.8,6.9,29,0.00,,,0.00,WUHU216HW,2013-04-17 17:42:00,
2013-04-17 10:47:00,63.7,30.8,29.91,SW,219,3.2,6.9,29,0.00,,,0.00,WUHU216HW,2013-04-17 17:47:00,
2013-04-17 10:48:00,32.0,32.0,30.54,North,0,35.6,35.6,100,1.89,,---,0.00,VWS V14.01,2013-04-17 17:48:00,
2013-04-17 10:49:00,64.1,32.1,29.91,West,270,2.7,35.6,30,0.00,,---,0.00,VWS V14.01,2013-04-17 17:49:00,
2013-04-17 10:50:00,64.3,32.2,29.91,WSW,248,2.5,3.1,30,0.00,,---,0.00,VWS V14.01,2013-04-17 17:50:00,
2013-04-17 10:51:00,64.4,32.3,29.91,WSW,248,2.0,4.9,30,0.00,,---,0.00,VWS V14.01,2013-04-17 17:51:00,
2013-04-17 10:52:00,64.4,32.4,29.91,SSW,202,2.7,6.7,30,0.00,,,0.00,WUHU216HW,2013-04-17 17:52:00,
2013-04-17 10:53:00,64.8,32.7,29.91,WSW,248,4.0,4.7,30,0.00,,---,0.00,VWS V14.01,2013-04-17 17:53:00,
2013-04-17 10:54:00,64.8,32.7,29.91,SW,225,4.5,4.9,30,0.00,,---,0.00,VWS V14.01,2013-04-17 17:54:00,
2013-04-17 10:55:00,64.8,31.8,29.91,West,270,3.8,6.7,29,0.00,,---,0.00,VWS V14.01,2013-04-17 17:55:00,
2013-04-17 10:56:00,64.6,30.8,29.91,WSW,248,5.4,5.4,28,0.00,,---,0.00,VWS V14.01,2013-04-17 17:56:00,
2013-04-17 10:57:00,64.6,30.6,29.91,WSW,248,5.4,6.7,28,0.00,,,0.00,WUHU216HW,2013-04-17 17:57:00,
2013-04-17 10:58:00,64.1,30.4,29.91,SW,225,7.6,7.6,28,0.00,,---,0.00,VWS V14.01,2013-04-17 17:58:00,
2013-04-17 10:59:00,63.9,31.0,29.91,WSW,248,2.0,7.6,29,0.00,,---,0.00,VWS V14.01,2013-04-17 17:59:00,
2013-04-17 11:00:00,63.7,30.9,29.91,WSW,248,3.6,3.6,29,0.00,,---,0.00,VWS V14.01,2013-04-17 18:00:00,
2013-04-17 11:01:00,63.9,31.0,29.91,WSW,248,3.4,3.6,29,0.00,,---,0.00,VWS V14.01,2013-04-17 18:01:00,
2013-04-17 11:02:00,63.9,31.0,29.91,WSW,248,3.4,7.6,29,0.00,,,0.00,WUHU216HW,2013-04-17 18:02:00,
2013-04-17 11:03:00,64.1,31.2,29.91,WSW,248,2.0,3.4,29,0.00,,---,0.00,VWS V14.01,2013-04-17 18:03:00,
2013-04-17 11:04:00,64.3,32.2,29.91,WSW,248,4.0,4.0,30,0.00,,---,0.00,VWS V14.01,2013-04-17 18:04:00,
2013-04-17 11:05:00,64.4,32.3,29.91,South,180,2.7,5.4,30,0.00,,---,0.00,VWS V14.01,2013-04-17 18:05:00,
2013-04-17 11:06:00,64.4,32.3,29.91,WSW,248,2.5,2.7,30,0.00,,---,0.00,VWS V14.01,2013-04-17 18:06:00,
2013-04-17 11:07:00,64.6,32.6,29.91,SW,216,3.3,7.6,30,0.00,,,0.00,WUHU216HW,2013-04-17 18:07:00,
2013-04-17 11:08:00,64.8,31.8,29.91,WSW,248,4.0,4.0,29,0.00,,---,0.00,VWS V14.01,2013-04-17 18:08:00,
2013-04-17 11:09:00,65.0,32.0,29.91,SSW,202,3.1,4.0,29,0.00,,---,0.00,VWS V14.01,2013-04-17 18:09:00,
2013-04-17 11:10:00,65.0,32.8,29.91,WSW,248,0.9,3.1,30,0.00,,---,0.00,VWS V14.01,2013-04-17 18:10:00,
2013-04-17 11:11:00,65.0,32.8,29.91,SW,225,4.0,4.0,30,0.00,,---,0.00,VWS V14.01,2013-04-17 18:11:00,
2013-04-17 11:12:00,65.0,32.9,29.91,SW,225,4.0,5.4,30,0.00,,,0.00,WUHU216HW,2013-04-17 18:12:00,
2013-04-17 11:13:00,65.2,31.3,29.91,South,180,4.5,5.4,28,0.00,,---,0.00,VWS V14.01,2013-04-17 18:13:00,
2013-04-17 11:14:00,65.2,29.5,29.91,WSW,248,3.8,4.7,26,0.00,,---,0.00,VWS V14.01,2013-04-17 18:14:00,
2013-04-17 11:15:00,65.0,31.1,29.91,WSW,248,2.9,6.3,28,0.00,,---,0.00,VWS V14.01,2013-04-17 18:15:00,
2013-04-17 11:16:00,65.0,29.3,29.91,West,270,5.8,6.7,26,0.00,,---,0.00,VWS V14.01,2013-04-17 18:16:00,
2013-04-17 11:17:00,65.0,28.9,29.91,West,270,5.8,6.7,26,0.00,,,0.00,WUHU216HW,2013-04-17 18:17:00,
2013-04-17 11:22:00,65.0,28.9,29.91,SW,227,3.9,9.8,26,0.00,,,0.00,WUHU216HW,2013-04-17 18:22:00,
2013-04-17 11:27:00,64.3,27.3,29.91,WSW,249,4.7,9.8,25,0.00,,,0.00,WUHU216HW,2013-04-17 18:27:00,
2013-04-17 11:32:00,63.4,27.0,29.91,NNW,338,7.6,10.3,25,0.00,,FEW,0.00,VWS V14.01,2013-04-17 18:32:00,
2013-04-17 11:37:00,63.7,27.2,29.91,WSW,248,3.8,6.9,25,0.00,,FEW,0.00,VWS V14.01,2013-04-17 18:37:00,
2013-04-17 11:42:00,63.4,26.0,29.91,SW,225,4.7,4.7,24,0.00,,FEW,0.00,VWS V14.01,2013-04-17 18:42:00,
2013-04-17 11:47:00,63.4,26.6,29.91,SW,225,3.5,6.9,25,0.00,,,0.00,WUHU216HW,2013-04-17 18:47:00,
2013-04-17 11:52:00,63.5,27.6,29.91,WSW,248,4.7,5.4,26,0.00,,,0.00,WUHU216HW,2013-04-17 18:52:00,
2013-04-17 11:57:00,64.6,28.0,29.91,WSW,248,2.5,4.0,25,0.00,,FEW,0.00,VWS V14.01,2013-04-17 18:57:00,
2013-04-17 12:02:00,64.8,27.2,29.91,WSW,248,2.5,3.8,24,0.00,,FEW,0.00,VWS V14.01,2013-04-17 19:02:00,
2013-04-17 12:07:00,63.4,26.6,29.91,SW,225,3.8,7.4,25,0.00,,,0.00,WUHU216HW,2013-04-17 19:07:00,
2013-04-17 12:11:00,62.3,25.7,29.91,WSW,246,4.2,6.9,25,0.00,,,0.00,WUHU216HW,2013-04-17 19:11:00,
2013-04-17 12:16:00,62.5,27.2,29.90,SW,225,6.3,6.3,26,0.00,,FEW,0.00,VWS V14.01,2013-04-17 19:16:00,
2013-04-17 12:21:00,63.2,26.4,29.91,West,270,7.6,7.6,25,0.00,,,0.00,WUHU216HW,2013-04-17 19:21:00,
2013-04-17 12:26:00,62.6,25.3,29.91,WNW,292,2.9,2.9,24,0.00,,FEW,0.00,VWS V14.01,2013-04-17 19:26:00,
2013-04-17 12:32:00,62.8,26.5,29.91,WNW,292,5.1,5.1,25,0.00,,FEW,0.00,VWS V14.01,2013-04-17 19:32:00,
2013-04-17 12:36:00,62.8,26.1,29.91,WSW,251,3.6,5.4,25,0.00,,,0.00,WUHU216HW,2013-04-17 19:36:00,
2013-04-17 12:41:00,63.2,25.8,29.91,WNW,292,6.0,8.5,24,0.00,,FEW,0.00,VWS V14.01,2013-04-17 19:41:00,
2013-04-17 12:46:00,62.5,25.7,29.91,West,271,3.4,9.8,25,0.00,,,0.00,WUHU216HW,2013-04-17 19:46:00,
2013-04-17 12:51:00,63.4,26.0,29.91,SSW,202,4.5,4.5,24,0.00,,FEW,0.00,VWS V14.01,2013-04-17 19:51:00,
2013-04-17 12:56:00,64.4,26.5,29.91,West,267,4.3,7.4,24,0.00,,,0.00,WUHU216HW,2013-04-17 19:56:00,
2013-04-17 13:01:00,64.8,26.2,29.91,SW,225,7.2,7.4,23,0.00,,FEW,0.00,VWS V14.01,2013-04-17 20:01:00,
2013-04-17 13:06:00,65.5,26.4,29.91,SW,225,5.1,7.6,23,0.00,,,0.00,WUHU216HW,2013-04-17 20:06:00,
2013-04-17 13:11:00,65.9,27.1,29.91,WSW,248,4.3,4.3,23,0.00,,FEW,0.00,VWS V14.01,2013-04-17 20:11:00,
2013-04-17 13:16:00,65.5,25.4,29.91,WSW,248,6.9,8.5,22,0.00,,,0.00,WUHU216HW,2013-04-17 20:16:00,
2013-04-17 13:21:00,65.9,26.0,29.91,South,180,3.8,3.8,22,0.00,,FEW,0.00,VWS V14.01,2013-04-17 20:21:00,
2013-04-17 13:26:00,66.6,25.5,29.91,SSW,202,5.6,5.6,21,0.00,,FEW,0.00,VWS V14.01,2013-04-17 20:26:00,
2013-04-17 13:31:00,65.9,26.0,29.91,WSW,248,3.4,3.4,22,0.00,,FEW,0.00,VWS V14.01,2013-04-17 20:31:00,
2013-04-17 13:36:00,66.2,25.9,29.91,WSW,244,2.5,7.2,22,0.00,,,0.00,WUHU216HW,2013-04-17 20:36:00,
2013-04-17 13:41:00,66.6,25.5,29.91,WSW,248,4.9,6.0,21,0.00,,FEW,0.00,VWS V14.01,2013-04-17 20:41:00,
2013-04-17 13:46:00,66.4,25.1,29.91,WNW,290,4.0,9.2,21,0.00,,,0.00,WUHU216HW,2013-04-17 20:46:00,
2013-04-17 13:51:00,66.4,25.3,29.91,West,270,1.1,5.1,21,0.00,,FEW,0.00,VWS V14.01,2013-04-17 20:51:00,
2013-04-17 13:57:00,67.3,26.1,29.91,WSW,248,2.5,4.9,21,0.00,,FEW,0.00,VWS V14.01,2013-04-17 20:57:00,
2013-04-17 14:01:00,67.5,23.8,29.91,West,270,6.3,6.3,19,0.00,,FEW,0.00,VWS V14.01,2013-04-17 21:01:00,
2013-04-17 14:06:00,66.8,23.2,29.91,WSW,248,5.4,5.4,19,0.00,,FEW,0.00,VWS V14.01,2013-04-17 21:06:00,
2013-04-17 14:11:00,66.4,22.8,29.91,SSW,203,4.3,7.2,19,0.00,,,0.00,WUHU216HW,2013-04-17 21:11:00,
2013-04-17 14:16:00,66.2,22.7,29.91,WSW,242,3.9,6.5,19,0.00,,,0.00,WUHU216HW,2013-04-17 21:16:00,
2013-04-17 14:21:00,66.2,21.5,29.91,WNW,292,5.8,5.8,18,0.00,,FEW,0.00,VWS V14.01,2013-04-17 21:21:00,
2013-04-17 14:26:00,66.6,23.0,29.91,SW,229,4.3,8.5,19,0.00,,,0.00,WUHU216HW,2013-04-17 21:26:00,
2013-04-17 14:31:00,67.0,22.1,29.91,SW,225,7.2,7.2,18,0.00,,FEW,0.00,VWS V14.01,2013-04-17 21:31:00,
2013-04-17 14:36:00,67.0,22.1,29.91,SSW,202,1.8,2.7,18,0.00,,FEW,0.00,VWS V14.01,2013-04-17 21:36:00,
2013-04-17 14:41:00,67.3,21.7,29.90,SSW,203,5.8,7.2,18,0.00,,,0.00,WUHU216HW,2013-04-17 21:41:00,
2013-04-17 14:46:00,67.1,22.2,29.90,West,270,6.9,9.6,18,0.00,,FEW,0.00,VWS V14.01,2013-04-17 21:46:00,
2013-04-17 14:51:00,67.0,21.4,29.90,SSW,205,3.5,9.6,18,0.00,,,0.00,WUHU216HW,2013-04-17 21:51:00,
2013-04-17 14:56:00,67.1,22.2,29.90,SW,225,2.7,2.7,18,0.00,,FEW,0.00,VWS V14.01,2013-04-17 21:56:00,
2013-04-17 15:01:00,66.6,21.8,29.90,SSW,202,4.9,6.0,18,0.00,,FEW,0.00,VWS V14.01,2013-04-17 22:01:00,
2013-04-17 15:06:00,66.8,21.2,29.89,SW,225,4.5,6.0,18,0.00,,,0.00,WUHU216HW,2013-04-17 22:06:00,
2013-04-17 15:11:00,66.8,20.6,29.89,WNW,292,5.1,5.1,17,0.00,,FEW,0.00,VWS V14.01,2013-04-17 22:11:00,
2013-04-17 15:16:00,67.1,21.6,29.90,SW,226,4.1,6.7,18,0.00,,,0.00,WUHU216HW,2013-04-17 22:16:00,
2013-04-17 15:21:00,67.0,19.8,29.89,SSW,203,4.7,6.0,17,0.00,,,0.00,WUHU216HW,2013-04-17 22:21:00,
2013-04-17 15:26:00,66.6,19.5,29.90,South,180,4.0,6.0,17,0.00,,,0.00,WUHU216HW,2013-04-17 22:26:00,
2013-04-17 15:31:00,66.6,19.5,29.90,West,270,6.3,6.9,17,0.00,,,0.00,WUHU216HW,2013-04-17 22:31:00,
2013-04-17 15:36:00,66.2,20.1,29.90,WSW,248,5.6,5.6,17,0.00,,FEW,0.00,VWS V14.01,2013-04-17 22:36:00,
2013-04-17 15:41:00,65.9,20.5,29.90,SSW,203,4.0,8.5,18,0.00,,,0.00,WUHU216HW,2013-04-17 22:41:00,
2013-04-17 15:46:00,66.1,20.0,29.90,NW,315,7.6,7.6,17,0.00,,FEW,0.00,VWS V14.01,2013-04-17 22:46:00,
2013-04-17 15:51:00,66.2,21.5,29.90,North,0,1.1,1.1,18,0.00,,FEW,0.00,VWS V14.01,2013-04-17 22:51:00,
2013-04-17 15:56:00,65.9,18.5,29.90,WSW,248,3.6,3.6,16,0.00,,FEW,0.00,VWS V14.01,2013-04-17 22:56:00,
2013-04-17 16:01:00,66.2,18.7,29.90,SW,225,3.1,3.1,16,0.00,,FEW,0.00,VWS V14.01,2013-04-17 23:01:00,
2013-04-17 16:06:00,66.2,17.2,29.90,NW,315,7.8,7.8,15,0.00,,FEW,0.00,VWS V14.01,2013-04-17 23:06:00,
2013-04-17 16:11:00,65.9,18.5,29.90,WSW,248,2.2,4.0,16,0.00,,FEW,0.00,VWS V14.01,2013-04-17 23:11:00,
2013-04-17 16:16:00,65.7,18.3,29.91,WSW,248,5.8,6.3,16,0.00,,FEW,0.00,VWS V14.01,2013-04-17 23:16:00,
2013-04-17 16:21:00,65.5,17.0,29.91,SW,224,4.1,7.4,16,0.00,,,0.00,WUHU216HW,2013-04-17 23:21:00,
2013-04-17 16:26:00,65.5,19.6,29.90,West,270,2.9,2.9,17,0.00,,FEW,0.00,VWS V14.01,2013-04-17 23:26:00,
2013-04-17 16:31:00,65.3,19.4,29.90,West,270,2.2,2.2,17,0.00,,FEW,0.00,VWS V14.01,2013-04-17 23:31:00,
2013-04-17 16:36:00,65.5,17.0,29.91,NNW,338,4.9,5.6,16,0.00,,,0.00,WUHU216HW,2013-04-17 23:36:00,
2013-04-17 16:41:00,65.3,18.0,29.90,NW,315,5.8,6.3,16,0.00,,FEW,0.00,VWS V14.01,2013-04-17 23:41:00,
2013-04-17 16:46:00,65.2,18.4,29.91,West,260,3.8,7.6,17,0.00,,,0.00,WUHU216HW,2013-04-17 23:46:00,
2013-04-17 16:51:00,65.0,19.2,29.90,WSW,248,2.9,2.9,17,0.00,,FEW,0.00,VWS V14.01,2013-04-17 23:51:00,
2013-04-17 16:56:00,64.8,16.5,29.91,WNW,293,5.4,8.1,16,0.00,,,0.00,WUHU216HW,2013-04-17 23:56:00,
2013-04-17 17:01:00,64.8,17.6,29.91,West,270,6.5,8.1,16,0.00,,FEW,0.00,VWS V14.01,2013-04-18 00:01:00,
2013-04-17 17:06:00,64.4,16.2,29.91,West,270,4.3,9.6,16,0.00,,,0.00,WUHU216HW,2013-04-18 00:06:00,
2013-04-17 17:11:00,64.3,17.2,29.91,West,270,2.0,3.8,16,0.00,,FEW,0.00,VWS V14.01,2013-04-18 00:11:00,
2013-04-17 17:16:00,64.3,16.0,29.91,West,270,5.4,7.6,16,0.00,,,0.00,WUHU216HW,2013-04-18 00:16:00,
2013-04-17 17:17:00,64.4,17.3,29.91,West,270,4.7,6.5,16,0.00,,FEW,0.00,VWS V14.01,2013-04-18 00:17:00,
2013-04-17 17:18:00,64.3,17.2,29.91,West,270,4.7,6.0,16,0.00,,FEW,0.00,VWS V14.01,2013-04-18 00:18:00,
2013-04-17 17:19:00,64.3,17.2,29.91,WSW,248,2.5,4.7,16,0.00,,FEW,0.00,VWS V14.01,2013-04-18 00:19:00,
2013-04-17 17:20:00,64.3,17.2,29.91,SW,225,3.4,4.5,16,0.00,,FEW,0.00,VWS V14.01,2013-04-18 00:20:00,
2013-04-17 17:21:00,64.1,17.0,29.91,SW,225,4.3,4.3,16,0.00,,FEW,0.00,VWS V14.01,2013-04-18 00:21:00,
2013-04-17 17:22:00,64.1,17.0,29.91,WNW,292,3.4,5.1,16,0.00,,FEW,0.00,VWS V14.01,2013-04-18 00:22:00,
2013-04-17 17:23:00,64.1,17.0,29.91,WSW,248,2.2,3.4,16,0.00,,FEW,0.00,VWS V14.01,2013-04-18 00:23:00,
2013-04-17 17:24:00,63.9,16.9,29.91,WSW,248,2.0,2.2,16,0.00,,FEW,0.00,VWS V14.01,2013-04-18 00:24:00,
2013-04-17 17:25:00,63.9,16.9,29.91,SSW,202,1.8,2.9,16,0.00,,FEW,0.00,VWS V14.01,2013-04-18 00:25:00,
2013-04-17 17:26:00,64.1,17.0,29.91,South,180,1.1,2.5,16,0.00,,FEW,0.00,VWS V14.01,2013-04-18 00:26:00,
2013-04-17 17:27:00,64.1,18.4,29.91,SW,225,2.9,2.9,17,0.00,,FEW,0.00,VWS V14.01,2013-04-18 00:27:00,
2013-04-17 17:28:00,64.1,17.0,29.91,WSW,248,2.2,3.1,16,0.00,,FEW,0.00,VWS V14.01,2013-04-18 00:28:00,
2013-04-17 17:29:00,64.3,17.2,29.91,West,270,4.7,4.7,16,0.00,,FEW,0.00,VWS V14.01,2013-04-18 00:29:00,
2013-04-17 17:30:00,64.3,15.7,29.91,West,270,6.9,6.9,15,0.00,,FEW,0.00,VWS V14.01,2013-04-18 00:30:00,
2013-04-17 17:31:00,64.1,14.3,29.91,West,273,5.6,7.6,15,0.00,,,0.00,WUHU216HW,2013-04-18 00:31:00,
2013-04-17 17:32:00,64.1,15.5,29.91,West,270,5.4,5.4,15,0.00,,FEW,0.00,VWS V14.01,2013-04-18 00:32:00,
2013-04-17 17:33:00,64.1,15.5,29.91,WSW,248,8.1,8.1,15,0.00,,FEW,0.00,VWS V14.01,2013-04-18 00:33:00,
2013-04-17 17:34:00,63.9,15.4,29.91,WSW,248,2.9,8.1,15,0.00,,FEW,0.00,VWS V14.01,2013-04-18 00:34:00,
2013-04-17 17:35:00,63.7,15.2,29.91,WSW,248,3.4,4.0,15,0.00,,FEW,0.00,VWS V14.01,2013-04-18 00:35:00,
2013-04-17 17:36:00,63.7,15.2,29.91,WSW,248,3.4,3.6,15,0.00,,FEW,0.00,VWS V14.01,2013-04-18 00:36:00,
2013-04-17 17:37:00,63.7,15.2,29.91,West,270,6.3,6.3,15,0.00,,FEW,0.00,VWS V14.01,2013-04-18 00:37:00,
2013-04-17 17:38:00,63.7,15.2,29.91,West,270,5.8,6.9,15,0.00,,FEW,0.00,VWS V14.01,2013-04-18 00:38:00,
2013-04-17 17:39:00,63.5,15.1,29.91,NW,315,5.8,5.8,15,0.00,,FEW,0.00,VWS V14.01,2013-04-18 00:39:00,
2013-04-17 17:40:00,63.5,15.1,29.91,NW,315,4.7,5.8,15,0.00,,FEW,0.00,VWS V14.01,2013-04-18 00:40:00,
2013-04-17 17:41:00,63.4,13.8,29.91,WNW,303,4.6,8.1,15,0.00,,,0.00,WUHU216HW,2013-04-18 00:41:00,
2013-04-17 17:42:00,63.4,15.0,29.91,WNW,292,6.0,6.0,15,0.00,,FEW,0.00,VWS V14.01,2013-04-18 00:42:00,
2013-04-17 17:43:00,63.4,15.0,29.91,WNW,292,1.3,6.0,15,0.00,,FEW,0.00,VWS V14.01,2013-04-18 00:43:00,
2013-04-17 17:44:00,63.4,16.5,29.91,NNW,338,2.2,2.2,16,0.00,,FEW,0.00,VWS V14.01,2013-04-18 00:44:00,
2013-04-17 17:45:00,63.2,16.3,29.91,NW,315,2.0,4.9,16,0.00,,FEW,0.00,VWS V14.01,2013-04-18 00:45:00,
2013-04-17 17:46:00,63.2,16.3,29.91,WNW,292,2.5,2.5,16,0.00,,FEW,0.00,VWS V14.01,2013-04-18 00:46:00,
2013-04-17 17:47:00,63.2,16.3,29.91,NNW,338,4.7,4.7,16,0.00,,FEW,0.00,VWS V14.01,2013-04-18 00:47:00,
2013-04-17 17:48:00,63.2,16.3,29.91,West,270,2.2,4.7,16,0.00,,FEW,0.00,VWS V14.01,2013-04-18 00:48:00,
2013-04-17 17:49:00,63.2,16.3,29.91,SSW,202,4.7,4.7,16,0.00,,FEW,0.00,VWS V14.01,2013-04-18 00:49:00,
2013-04-17 17:50:00,63.2,16.3,29.91,WSW,248,1.8,4.7,16,0.00,,FEW,0.00,VWS V14.01,2013-04-18 00:50:00,
2013-04-17 17:51:00,63.0,15.0,29.91,WSW,237,2.7,6.0,16,0.00,,,0.00,WUHU216HW,2013-04-18 00:51:00,
2013-04-17 17:52:00,63.2,16.3,29.91,SW,225,1.8,1.8,16,0.00,,FEW,0.00,VWS V14.01,2013-04-18 00:52:00,
2013-04-17 17:53:00,63.2,16.3,29.91,WNW,292,2.5,3.4,16,0.00,,FEW,0.00,VWS V14.01,2013-04-18 00:53:00,
2013-04-17 17:54:00,63.2,16.3,29.91,NW,315,3.6,5.4,16,0.00,,FEW,0.00,VWS V14.01,2013-04-18 00:54:00,
2013-04-17 17:55:00,63.2,16.3,29.91,WNW,292,3.4,4.0,16,0.00,,FEW,0.00,VWS V14.01,2013-04-18 00:55:00,
2013-04-17 17:56:00,63.0,13.5,29.91,West,270,4.7,6.5,15,0.00,,,0.00,WUHU216HW,2013-04-18 00:56:00,
2013-04-17 17:57:00,63.0,14.6,29.91,NW,315,4.9,6.3,15,0.00,,FEW,0.00,VWS V14.01,2013-04-18 00:57:00,
2013-04-17 17:58:00,63.0,16.1,29.91,NW,315,3.4,6.3,16,0.00,,FEW,0.00,VWS V14.01,2013-04-18 00:58:00,
2013-04-17 17:59:00,62.8,16.0,29.91,WNW,292,2.5,4.0,16,0.00,,FEW,0.00,VWS V14.01,2013-04-18 00:59:00,
2013-04-17 18:00:00,62.6,15.8,29.91,WNW,292,3.8,4.3,16,0.00,,FEW,0.00,VWS V14.01,2013-04-18 01:00:00,
2013-04-17 18:01:00,62.6,14.8,29.91,NW,315,6.9,6.9,16,0.00,,,0.00,WUHU216HW,2013-04-18 01:01:00,
2013-04-17 18:02:00,62.6,15.8,29.91,West,270,2.9,4.7,16,0.00,,FEW,0.00,VWS V14.01,2013-04-18 01:02:00,
2013-04-17 18:03:00,62.6,15.8,29.91,North,0,4.0,4.3,16,0.00,,FEW,0.00,VWS V14.01,2013-04-18 01:03:00,
2013-04-17 18:04:00,62.6,15.8,29.91,WNW,292,6.3,6.3,16,0.00,,FEW,0.00,VWS V14.01,2013-04-18 01:04:00,
2013-04-17 18:05:00,62.6,15.8,29.91,West,270,3.8,6.3,16,0.00,,FEW,0.00,VWS V14.01,2013-04-18 01:05:00,
2013-04-17 18:06:00,62.6,15.8,29.91,WSW,248,7.2,7.2,16,0.00,,FEW,0.00,VWS V14.01,2013-04-18 01:06:00,
2013-04-17 18:07:00,62.6,14.8,29.91,WSW,248,7.2,7.2,16,0.00,,,0.00,WUHU216HW,2013-04-18 01:07:00,
2013-04-17 18:08:00,62.5,15.7,29.91,WSW,248,4.0,5.6,16,0.00,,FEW,0.00,VWS V14.01,2013-04-18 01:08:00,
2013-04-17 18:09:00,62.5,15.7,29.91,WNW,292,4.7,5.1,16,0.00,,FEW,0.00,VWS V14.01,2013-04-18 01:09:00,
2013-04-17 18:10:00,62.5,15.7,29.91,WSW,248,4.3,5.4,16,0.00,,FEW,0.00,VWS V14.01,2013-04-18 01:10:00,
2013-04-17 18:11:00,62.3,15.6,29.92,North,0,3.1,6.5,16,0.00,,FEW,0.00,VWS V14.01,2013-04-18 01:11:00,
2013-04-17 18:12:00,62.3,15.6,29.92,West,270,4.7,6.5,16,0.00,,FEW,0.00,VWS V14.01,2013-04-18 01:12:00,
2013-04-17 18:13:00,62.3,15.6,29.92,WSW,248,2.5,3.8,16,0.00,,FEW,0.00,VWS V14.01,2013-04-18 01:13:00,
2013-04-17 18:14:00,62.3,17.0,29.92,West,270,2.7,2.7,17,0.00,,FEW,0.00,VWS V14.01,2013-04-18 01:14:00,
2013-04-17 18:15:00,62.3,17.0,29.91,WNW,292,1.3,2.7,17,0.00,,FEW,0.00,VWS V14.01,2013-04-18 01:15:00,
2013-04-17 18:16:00,62.3,17.0,29.91,SW,225,0.9,2.5,17,0.00,,FEW,0.00,VWS V14.01,2013-04-18 01:16:00,
2013-04-17 18:17:00,62.3,16.1,29.91,West,275,1.8,7.2,17,0.00,,,0.00,WUHU216HW,2013-04-18 01:17:00,
2013-04-17 18:18:00,62.3,17.0,29.91,WSW,248,2.2,2.2,17,0.00,,FEW,0.00,VWS V14.01,2013-04-18 01:18:00,
2013-04-17 18:19:00,62.1,16.8,29.91,WSW,248,1.6,2.2,17,0.00,,FEW,0.00,VWS V14.01,2013-04-18 01:19:00,
2013-04-17 18:20:00,62.1,16.8,29.92,WNW,292,2.9,2.9,17,0.00,,FEW,0.00,VWS V14.01,2013-04-18 01:20:00,
2013-04-17 18:21:00,62.1,16.8,29.91,SW,225,2.5,3.6,17,0.00,,FEW,0.00,VWS V14.01,2013-04-18 01:21:00,
2013-04-17 18:22:00,61.9,16.6,29.92,West,270,4.0,4.0,17,0.00,,FEW,0.00,VWS V14.01,2013-04-18 01:22:00,
2013-04-17 18:23:00,61.9,15.2,29.92,South,180,4.3,5.6,16,0.00,,FEW,0.00,VWS V14.01,2013-04-18 01:23:00,
2013-04-17 18:24:00,61.9,15.2,29.92,WNW,292,1.8,4.3,16,0.00,,FEW,0.00,VWS V14.01,2013-04-18 01:24:00,
2013-04-17 18:25:00,61.7,16.5,29.92,SSW,202,3.4,3.6,17,0.00,,FEW,0.00,VWS V14.01,2013-04-18 01:25:00,
2013-04-17 18:26:00,61.7,16.5,29.92,WSW,248,2.7,4.0,17,0.00,,FEW,0.00,VWS V14.01,2013-04-18 01:26:00,
2013-04-17 18:27:00,61.6,15.0,29.92,WSW,248,3.4,3.8,16,0.00,,FEW,0.00,VWS V14.01,2013-04-18 01:27:00,
2013-04-17 18:28:00,61.6,15.0,29.92,NNW,338,5.8,5.8,16,0.00,,FEW,0.00,VWS V14.01,2013-04-18 01:28:00,
2013-04-17 18:29:00,61.6,15.0,29.92,NNW,338,6.7,6.7,16,0.00,,FEW,0.00,VWS V14.01,2013-04-18 01:29:00,
2013-04-17 18:30:00,61.6,15.0,29.92,WSW,248,2.7,6.7,16,0.00,,FEW,0.00,VWS V14.01,2013-04-18 01:30:00,
2013-04-17 18:31:00,61.4,13.8,29.92,WNW,283,4.2,6.7,16,0.00,,,0.00,WUHU216HW,2013-04-18 01:31:00,
2013-04-17 18:32:00,61.4,14.8,29.92,WSW,248,2.5,3.1,16,0.00,,FEW,0.00,VWS V14.01,2013-04-18 01:32:00,
2013-04-17 18:33:00,61.2,14.7,29.92,West,270,1.6,2.5,16,0.00,,FEW,0.00,VWS V14.01,2013-04-18 01:33:00,
2013-04-17 18:34:00,61.2,14.7,29.92,WNW,292,2.5,2.7,16,0.00,,FEW,0.00,VWS V14.01,2013-04-18 01:34:00,
2013-04-17 18:35:00,61.2,14.7,29.92,West,270,2.9,2.9,16,0.00,,FEW,0.00,VWS V14.01,2013-04-18 01:35:00,
2013-04-17 18:36:00,61.2,15.2,29.92,WNW,294,2.0,6.7,17,0.00,,,0.00,WUHU216HW,2013-04-18 01:36:00,
2013-04-17 18:37:00,61.2,14.7,29.92,SW,225,1.6,2.7,16,0.00,,FEW,0.00,VWS V14.01,2013-04-18 01:37:00,
2013-04-17 18:38:00,61.2,14.7,29.92,WNW,292,1.8,1.8,16,0.00,,FEW,0.00,VWS V14.01,2013-04-18 01:38:00,
2013-04-17 18:39:00,61.0,14.5,29.92,WSW,248,1.8,1.8,16,0.00,,FEW,0.00,VWS V14.01,2013-04-18 01:39:00,
2013-04-17 18:40:00,61.0,15.9,29.92,SW,225,1.8,1.8,17,0.00,,FEW,0.00,VWS V14.01,2013-04-18 01:40:00,
2013-04-17 18:41:00,61.0,15.9,29.92,SW,225,1.8,1.8,17,0.00,,FEW,0.00,VWS V14.01,2013-04-18 01:41:00,
2013-04-17 18:42:00,60.8,15.7,29.92,WSW,248,1.3,2.9,17,0.00,,FEW,0.00,VWS V14.01,2013-04-18 01:42:00,
2013-04-17 18:43:00,60.8,15.7,29.92,NNW,338,0.4,1.3,17,0.00,,FEW,0.00,VWS V14.01,2013-04-18 01:43:00,
2013-04-17 18:44:00,60.8,15.7,29.92,NW,315,1.1,1.8,17,0.00,,FEW,0.00,VWS V14.01,2013-04-18 01:44:00,
2013-04-17 18:45:00,60.8,15.7,29.92,WNW,292,2.0,2.0,17,0.00,,FEW,0.00,VWS V14.01,2013-04-18 01:45:00,
2013-04-17 18:46:00,60.7,13.2,29.92,WNW,295,1.6,2.9,16,0.00,,,0.00,WUHU216HW,2013-04-18 01:46:00,
2013-04-17 18:47:00,60.7,14.3,29.92,WSW,248,1.8,2.2,16,0.00,,FEW,0.00,VWS V14.01,2013-04-18 01:47:00,
2013-04-17 18:48:00,60.5,15.5,29.92,WSW,248,2.0,2.0,17,0.00,,FEW,0.00,VWS V14.01,2013-04-18 01:48:00,
2013-04-17 18:49:00,60.5,15.5,29.92,WSW,248,2.9,2.9,17,0.00,,FEW,0.00,VWS V14.01,2013-04-18 01:49:00,
2013-04-17 18:50:00,60.5,15.5,29.92,SW,225,3.8,3.8,17,0.00,,FEW,0.00,VWS V14.01,2013-04-18 01:50:00,
2013-04-17 18:51:00,60.3,15.3,29.92,WSW,248,3.4,4.0,17,0.00,,FEW,0.00,VWS V14.01,2013-04-18 01:51:00,
2013-04-17 18:52:00,60.3,15.3,29.92,WSW,248,3.4,4.0,17,0.00,,FEW,0.00,VWS V14.01,2013-04-18 01:52:00,
2013-04-17 18:53:00,60.3,15.3,29.92,West,270,3.4,3.4,17,0.00,,FEW,0.00,VWS V14.01,2013-04-18 01:53:00,
2013-04-17 18:54:00,60.1,13.8,29.92,West,270,3.4,4.7,16,0.00,,FEW,0.00,VWS V14.01,2013-04-18 01:54:00,
2013-04-17 18:55:00,60.1,13.8,29.92,NW,315,1.1,3.6,16,0.00,,FEW,0.00,VWS V14.01,2013-04-18 01:55:00,
2013-04-17 18:56:00,59.9,13.6,29.92,SW,225,0.4,1.1,16,0.00,,FEW,0.00,VWS V14.01,2013-04-18 01:56:00,
2013-04-17 18:57:00,59.9,13.6,29.92,WSW,248,3.4,3.4,16,0.00,,FEW,0.00,VWS V14.01,2013-04-18 01:57:00,
2013-04-17 18:58:00,59.8,14.9,29.92,WNW,292,2.0,3.4,17,0.00,,FEW,0.00,VWS V14.01,2013-04-18 01:58:00,
2013-04-17 18:59:00,59.8,13.5,29.92,WNW,292,1.1,3.4,16,0.00,,FEW,0.00,VWS V14.01,2013-04-18 01:59:00,
2013-04-17 19:00:00,59.8,13.5,29.92,West,270,1.1,1.1,16,0.00,,FEW,0.00,VWS V14.01,2013-04-18 02:00:00,
2013-04-17 19:01:00,59.6,13.9,29.92,West,277,1.2,4.7,17,0.00,,,0.00,WUHU216HW,2013-04-18 02:01:00,
2013-04-17 19:02:00,59.6,14.8,29.92,West,270,0.4,1.1,17,0.00,,FEW,0.00,VWS V14.01,2013-04-18 02:02:00,
2013-04-17 19:03:00,59.4,14.6,29.93,SW,225,0.7,0.7,17,0.00,,FEW,0.00,VWS V14.01,2013-04-18 02:03:00,
2013-04-17 19:04:00,59.4,14.6,29.92,WNW,292,0.4,0.7,17,0.00,,FEW,0.00,VWS V14.01,2013-04-18 02:04:00,
2013-04-17 19:05:00,59.4,14.6,29.93,WNW,292,1.3,1.3,17,0.00,,FEW,0.00,VWS V14.01,2013-04-18 02:05:00,
2013-04-17 19:06:00,59.2,14.4,29.93,NNW,338,0.9,1.1,17,0.00,,FEW,0.00,VWS V14.01,2013-04-18 02:06:00,
2013-04-17 19:07:00,59.0,14.3,29.93,West,270,2.0,2.0,17,0.00,,FEW,0.00,VWS V14.01,2013-04-18 02:07:00,
2013-04-17 19:08:00,59.0,14.3,29.93,West,270,1.6,2.0,17,0.00,,FEW,0.00,VWS V14.01,2013-04-18 02:08:00,
2013-04-17 19:09:00,59.0,14.3,29.93,West,270,2.0,2.0,17,0.00,,FEW,0.00,VWS V14.01,2013-04-18 02:09:00,
2013-04-17 19:10:00,58.9,14.2,29.93,West,270,1.3,2.5,17,0.00,,FEW,0.00,VWS V14.01,2013-04-18 02:10:00,
2013-04-17 19:11:00,58.7,14.0,29.93,WNW,292,2.2,2.2,17,0.00,,FEW,0.00,VWS V14.01,2013-04-18 02:11:00,
2013-04-17 19:12:00,58.7,14.0,29.93,WNW,292,2.2,2.2,17,0.00,,FEW,0.00,VWS V14.01,2013-04-18 02:12:00,
2013-04-17 19:13:00,58.7,14.0,29.93,West,270,0.9,2.2,17,0.00,,FEW,0.00,VWS V14.01,2013-04-18 02:13:00,
2013-04-17 19:14:00,58.7,14.0,29.93,WSW,248,3.4,3.4,17,0.00,,FEW,0.00,VWS V14.01,2013-04-18 02:14:00,
2013-04-17 19:15:00,58.7,12.6,29.93,WNW,292,2.2,3.4,16,0.00,,FEW,0.00,VWS V14.01,2013-04-18 02:15:00,
2013-04-17 19:16:00,58.5,11.3,29.93,NW,306,2.8,3.4,16,0.00,,,0.00,WUHU216HW,2013-04-18 02:16:00,
2013-04-17 19:17:00,58.3,12.3,29.93,NW,315,2.0,3.4,16,0.00,,FEW,0.00,VWS V14.01,2013-04-18 02:17:00,
2013-04-17 19:18:00,58.3,12.3,29.93,NW,315,1.6,2.0,16,0.00,,FEW,0.00,VWS V14.01,2013-04-18 02:18:00,
2013-04-17 19:19:00,58.3,12.3,29.93,WNW,292,1.8,3.6,16,0.00,,FEW,0.00,VWS V14.01,2013-04-18 02:19:00,
2013-04-17 19:20:00,58.3,12.3,29.93,WNW,292,1.1,1.8,16,0.00,,FEW,0.00,VWS V14.01,2013-04-18 02:20:00,
2013-04-17 19:21:00,58.3,12.8,29.93,West,270,2.2,3.6,17,0.00,,,0.00,WUHU216HW,2013-04-18 02:21:00,
2013-04-17 19:22:00,58.3,12.3,29.93,WNW,292,1.6,2.2,16,0.00,,FEW,0.00,VWS V14.01,2013-04-18 02:22:00,
2013-04-17 19:23:00,58.1,12.2,29.93,NW,315,2.0,2.0,16,0.00,,FEW,0.00,VWS V14.01,2013-04-18 02:23:00,
2013-04-17 19:24:00,58.1,12.2,29.93,WNW,292,1.1,2.0,16,0.00,,FEW,0.00,VWS V14.01,2013-04-18 02:24:00,
2013-04-17 19:25:00,58.1,12.2,29.93,WNW,292,1.1,2.2,16,0.00,,FEW,0.00,VWS V14.01,2013-04-18 02:25:00,
2013-04-17 19:26:00,58.0,12.1,29.93,North,0,0.4,0.9,16,0.00,,FEW,0.00,VWS V14.01,2013-04-18 02:26:00,
2013-04-17 19:27:00,58.0,12.1,29.93,WNW,292,0.9,0.9,16,0.00,,FEW,0.00,VWS V14.01,2013-04-18 02:27:00,
2013-04-17 19:28:00,58.0,12.1,29.93,West,270,1.1,2.5,16,0.00,,FEW,0.00,VWS V14.01,2013-04-18 02:28:00,
2013-04-17 19:30:00,57.8,11.9,29.93,NW,315,1.1,1.8,16,0.00,,FEW,0.00,VWS V14.01,2013-04-18 02:30:00,
2013-04-17 19:31:00,57.8,10.8,29.93,NW,315,3.4,3.4,16,0.00,,,0.00,WUHU216HW,2013-04-18 02:31:00,
2013-04-17 19:36:00,57.6,10.6,29.93,WSW,248,2.7,3.4,16,0.00,,,0.00,WUHU216HW,2013-04-18 02:36:00,
2013-04-17 19:41:00,57.2,10.4,29.94,NW,315,1.1,3.4,16,0.00,,,0.00,WUHU216HW,2013-04-18 02:41:00,
2013-04-17 19:42:00,57.2,11.4,29.94,NW,315,1.8,1.8,16,0.00,,FEW,0.00,VWS V14.01,2013-04-18 02:42:00,
2013-04-17 19:43:00,57.2,11.4,29.94,NW,315,1.8,1.8,16,0.00,,FEW,0.00,VWS V14.01,2013-04-18 02:43:00,
2013-04-17 19:44:00,57.2,11.4,29.94,NW,315,2.5,2.5,16,0.00,,FEW,0.00,VWS V14.01,2013-04-18 02:44:00,
2013-04-17 19:45:00,57.2,11.4,29.94,West,270,1.3,2.9,16,0.00,,FEW,0.00,VWS V14.01,2013-04-18 02:45:00,
2013-04-17 19:46:00,57.1,11.8,29.94,WNW,293,1.8,2.9,17,0.00,,,0.00,WUHU216HW,2013-04-18 02:46:00,
2013-04-17 19:47:00,57.1,12.7,29.94,West,270,1.3,2.5,17,0.00,,FEW,0.00,VWS V14.01,2013-04-18 02:47:00,
2013-04-17 19:48:00,56.9,12.6,29.94,West,270,1.1,1.3,17,0.00,,FEW,0.00,VWS V14.01,2013-04-18 02:48:00,
2013-04-17 19:49:00,56.9,12.6,29.94,West,270,0.4,1.6,17,0.00,,FEW,0.00,VWS V14.01,2013-04-18 02:49:00,
2013-04-17 19:50:00,56.9,12.6,29.94,West,270,1.3,1.3,17,0.00,,FEW,0.00,VWS V14.01,2013-04-18 02:50:00,
2013-04-17 19:51:00,56.7,11.5,29.94,West,277,1.1,2.9,17,0.00,,,0.00,WUHU216HW,2013-04-18 02:51:00,
2013-04-17 19:52:00,56.7,12.4,29.94,West,270,1.1,1.1,17,0.00,,FEW,0.00,VWS V14.01,2013-04-18 02:52:00,
2013-04-17 19:53:00,56.7,12.4,29.94,WNW,292,1.3,1.3,17,0.00,,FEW,0.00,VWS V14.01,2013-04-18 02:53:00,
2013-04-17 19:54:00,56.5,12.2,29.94,WNW,292,0.9,1.6,17,0.00,,FEW,0.00,VWS V14.01,2013-04-18 02:54:00,
2013-04-17 19:55:00,56.5,12.2,29.94,NW,315,3.1,3.4,17,0.00,,FEW,0.00,VWS V14.01,2013-04-18 02:55:00,
2013-04-17 19:56:00,56.5,11.3,29.94,WNW,300,2.4,3.4,17,0.00,,,0.00,WUHU216HW,2013-04-18 02:56:00,
2013-04-17 19:57:00,56.3,12.1,29.94,West,270,1.1,2.7,17,0.00,,FEW,0.00,VWS V14.01,2013-04-18 02:57:00,
2013-04-17 19:58:00,56.3,12.1,29.94,WNW,292,2.0,2.0,17,0.00,,FEW,0.00,VWS V14.01,2013-04-18 02:58:00,
2013-04-17 19:59:00,56.3,12.1,29.94,WNW,292,1.3,2.0,17,0.00,,FEW,0.00,VWS V14.01,2013-04-18 02:59:00,
2013-04-17 20:00:00,56.2,12.0,29.95,North,0,1.8,2.5,17,0.00,,FEW,0.00,VWS V14.01,2013-04-18 03:00:00,
2013-04-17 20:01:00,56.2,11.1,29.95,WNW,293,2.0,3.4,17,0.00,,,0.00,WUHU216HW,2013-04-18 03:01:00,
2013-04-17 20:02:00,56.2,12.0,29.95,West,270,0.9,2.0,17,0.00,,FEW,0.00,VWS V14.01,2013-04-18 03:02:00,
2013-04-17 20:03:00,56.0,11.8,29.95,WNW,292,0.9,1.1,17,0.00,,FEW,0.00,VWS V14.01,2013-04-18 03:03:00,
2013-04-17 20:04:00,56.0,11.8,29.95,North,0,1.1,1.3,17,0.00,,FEW,0.00,VWS V14.01,2013-04-18 03:04:00,
2013-04-17 20:05:00,56.0,11.8,29.95,West,270,0.4,1.6,17,0.00,,FEW,0.00,VWS V14.01,2013-04-18 03:05:00,
2013-04-17 20:06:00,55.8,11.7,29.95,WNW,292,0.7,0.7,17,0.00,,FEW,0.00,VWS V14.01,2013-04-18 03:06:00,
2013-04-17 20:07:00,55.8,11.7,29.95,WNW,292,1.1,1.1,17,0.00,,FEW,0.00,VWS V14.01,2013-04-18 03:07:00,
2013-04-17 20:08:00,55.8,11.7,29.95,WNW,292,0.9,2.0,17,0.00,,FEW,0.00,VWS V14.01,2013-04-18 03:08:00,
2013-04-17 20:09:00,55.6,11.5,29.95,West,270,0.4,0.9,17,0.00,,FEW,0.00,VWS V14.01,2013-04-18 03:09:00,
2013-04-17 20:10:00,55.6,11.5,29.95,WNW,292,0.4,1.1,17,0.00,,FEW,0.00,VWS V14.01,2013-04-18 03:10:00,
2013-04-17 20:11:00,55.6,10.7,29.95,NW,315,0.7,2.0,17,0.00,,,0.00,WUHU216HW,2013-04-18 03:11:00,
2013-04-17 20:12:00,55.4,11.3,29.95,WNW,292,1.1,1.1,17,0.00,,FEW,0.00,VWS V14.01,2013-04-18 03:12:00,
2013-04-17 20:13:00,55.4,11.3,29.96,WNW,292,1.1,1.3,17,0.00,,FEW,0.00,VWS V14.01,2013-04-18 03:13:00,
2013-04-17 20:14:00,55.4,11.3,29.96,WNW,292,0.0,1.1,17,0.00,,FEW,0.00,VWS V14.01,2013-04-18 03:14:00,
2013-04-17 20:15:00,55.4,11.3,29.96,NW,315,0.4,0.4,17,0.00,,FEW,0.00,VWS V14.01,2013-04-18 03:15:00,
2013-04-17 20:16:00,55.3,11.2,29.96,NNW,338,0.4,0.4,17,0.00,,FEW,0.00,VWS V14.01,2013-04-18 03:16:00,
2013-04-17 20:17:00,55.3,11.2,29.96,West,270,0.4,0.7,17,0.00,,FEW,0.00,VWS V14.01,2013-04-18 03:17:00,
2013-04-17 20:18:00,55.1,11.1,29.96,West,270,0.9,0.9,17,0.00,,FEW,0.00,VWS V14.01,2013-04-18 03:18:00,
2013-04-17 20:19:00,55.1,11.1,29.96,NW,315,0.4,0.9,17,0.00,,FEW,0.00,VWS V14.01,2013-04-18 03:19:00,
2013-04-17 20:20:00,55.1,11.1,29.96,NNW,338,0.7,1.6,17,0.00,,FEW,0.00,VWS V14.01,2013-04-18 03:20:00,
2013-04-17 20:21:00,55.1,11.1,29.96,North,0,0.2,0.4,17,0.00,,FEW,0.00,VWS V14.01,2013-04-18 03:21:00,
2013-04-17 20:22:00,55.1,11.1,29.96,WNW,292,0.4,0.4,17,0.00,,FEW,0.00,VWS V14.01,2013-04-18 03:22:00,
2013-04-17 20:23:00,55.1,11.1,29.96,West,270,0.9,0.9,17,0.00,,FEW,0.00,VWS V14.01,2013-04-18 03:23:00,
2013-04-17 20:24:00,55.1,11.1,29.96,NNW,338,0.4,1.1,17,0.00,,FEW,0.00,VWS V14.01,2013-04-18 03:24:00,
2013-04-17 20:25:00,54.9,10.9,29.96,NNW,338,0.0,0.4,17,0.00,,FEW,0.00,VWS V14.01,2013-04-18 03:25:00,
2013-04-17 20:26:00,54.9,10.1,29.96,NNW,345,0.3,1.6,17,0.00,,,0.00,WUHU216HW,2013-04-18 03:26:00,
2013-04-17 20:27:00,54.7,10.8,29.96,North,0,0.2,0.2,17,0.00,,FEW,0.00,VWS V14.01,2013-04-18 03:27:00,
2013-04-17 20:29:00,54.5,10.6,29.97,NNW,338,0.0,0.2,17,0.00,,FEW,0.00,VWS V14.01,2013-04-18 03:29:00,
2013-04-17 20:30:00,54.5,10.6,29.97,NNW,338,0.0,0.0,17,0.00,,FEW,0.00,VWS V14.01,2013-04-18 03:30:00,
2013-04-17 20:31:00,54.5,9.7,29.97,NNW,338,0.0,1.1,17,0.00,,,0.00,WUHU216HW,2013-04-18 03:31:00,
2013-04-17 20:32:00,54.4,10.5,29.97,NNW,338,0.0,0.0,17,0.00,,FEW,0.00,VWS V14.01,2013-04-18 03:32:00,
2013-04-17 20:33:00,54.4,10.5,29.97,NNW,338,0.0,0.0,17,0.00,,FEW,0.00,VWS V14.01,2013-04-18 03:33:00,
2013-04-17 20:34:00,54.4,10.5,29.97,NNW,338,0.0,0.0,17,0.00,,FEW,0.00,VWS V14.01,2013-04-18 03:34:00,
2013-04-17 20:35:00,54.2,10.4,29.97,NNW,338,0.0,0.0,17,0.00,,FEW,0.00,VWS V14.01,2013-04-18 03:35:00,
2013-04-17 20:36:00,54.2,9.5,29.97,NNW,338,0.0,0.2,17,0.00,,,0.00,WUHU216HW,2013-04-18 03:36:00,
2013-04-17 20:37:00,54.2,10.4,29.97,NNW,338,0.0,0.0,17,0.00,,FEW,0.00,VWS V14.01,2013-04-18 03:37:00,
2013-04-17 20:38:00,54.2,10.4,29.97,NNW,338,0.0,0.0,17,0.00,,FEW,0.00,VWS V14.01,2013-04-18 03:38:00,
2013-04-17 20:39:00,54.0,10.2,29.97,NNW,338,0.0,0.0,17,0.00,,FEW,0.00,VWS V14.01,2013-04-18 03:39:00,
2013-04-17 20:40:00,54.0,10.2,29.97,NNE,22,0.0,0.0,17,0.00,,FEW,0.00,VWS V14.01,2013-04-18 03:40:00,
2013-04-17 20:41:00,54.0,10.2,29.97,ENE,68,0.0,0.0,17,0.00,,FEW,0.00,VWS V14.01,2013-04-18 03:41:00,
2013-04-17 20:42:00,54.0,10.2,29.97,NNW,338,0.0,0.0,17,0.00,,FEW,0.00,VWS V14.01,2013-04-18 03:42:00,
2013-04-17 20:43:00,53.8,11.3,29.97,NNW,338,0.0,0.0,18,0.00,,FEW,0.00,VWS V14.01,2013-04-18 03:43:00,
2013-04-17 20:44:00,53.6,11.1,29.97,NNW,338,0.0,0.0,18,0.00,,FEW,0.00,VWS V14.01,2013-04-18 03:44:00,
2013-04-17 20:45:00,53.6,11.1,29.97,NNW,338,0.0,0.0,18,0.00,,FEW,0.00,VWS V14.01,2013-04-18 03:45:00,
2013-04-17 20:46:00,53.6,11.1,29.97,North,0,0.0,0.0,18,0.00,,FEW,0.00,VWS V14.01,2013-04-18 03:46:00,
2013-04-17 20:47:00,53.6,11.1,29.97,NW,315,0.0,0.2,18,0.00,,FEW,0.00,VWS V14.01,2013-04-18 03:47:00,
2013-04-17 20:48:00,53.6,11.1,29.97,NW,315,0.0,0.0,18,0.00,,FEW,0.00,VWS V14.01,2013-04-18 03:48:00,
2013-04-17 20:49:00,53.6,11.1,29.97,NW,315,0.0,0.0,18,0.00,,FEW,0.00,VWS V14.01,2013-04-18 03:49:00,
2013-04-17 20:50:00,53.6,11.1,29.97,NW,315,0.0,0.0,18,0.00,,FEW,0.00,VWS V14.01,2013-04-18 03:50:00,
2013-04-17 20:51:00,53.5,11.1,29.97,NW,315,0.0,0.0,18,0.00,,FEW,0.00,VWS V14.01,2013-04-18 03:51:00,
2013-04-17 20:52:00,53.5,11.1,29.97,NW,315,0.0,0.0,18,0.00,,FEW,0.00,VWS V14.01,2013-04-18 03:52:00,
2013-04-17 20:53:00,53.3,10.9,29.97,NNW,338,0.0,0.0,18,0.00,,FEW,0.00,VWS V14.01,2013-04-18 03:53:00,
2013-04-17 20:54:00,53.3,10.9,29.98,NW,315,0.0,0.2,18,0.00,,FEW,0.00,VWS V14.01,2013-04-18 03:54:00,
2013-04-17 20:55:00,53.3,10.9,29.98,WNW,292,0.2,0.4,18,0.00,,FEW,0.00,VWS V14.01,2013-04-18 03:55:00,
2013-04-17 20:56:00,53.1,10.1,29.98,NNW,331,0.3,0.7,18,0.00,,,0.00,WUHU216HW,2013-04-18 03:56:00,
2013-04-17 20:57:00,53.1,10.7,29.98,NW,315,0.2,0.2,18,0.00,,FEW,0.00,VWS V14.01,2013-04-18 03:57:00,
2013-04-17 20:58:00,52.9,10.6,29.98,North,0,0.7,0.7,18,0.00,,FEW,0.00,VWS V14.01,2013-04-18 03:58:00,
2013-04-17 20:59:00,52.9,10.6,29.98,North,0,0.0,0.7,18,0.00,,FEW,0.00,VWS V14.01,2013-04-18 03:59:00,
2013-04-17 21:00:00,52.9,10.6,29.98,North,0,0.0,0.0,18,0.00,,FEW,0.00,VWS V14.01,2013-04-18 04:00:00,
2013-04-17 21:01:00,52.9,10.6,29.98,North,0,0.0,0.0,18,0.00,,FEW,0.00,VWS V14.01,2013-04-18 04:01:00,
2013-04-17 21:02:00,52.7,10.4,29.98,North,0,0.2,0.4,18,0.00,,FEW,0.00,VWS V14.01,2013-04-18 04:02:00,
2013-04-17 21:03:00,52.7,10.4,29.98,North,0,0.0,0.2,18,0.00,,FEW,0.00,VWS V14.01,2013-04-18 04:03:00,
2013-04-17 21:04:00,52.6,10.3,29.98,North,0,0.0,0.0,18,0.00,,FEW,0.00,VWS V14.01,2013-04-18 04:04:00,
2013-04-17 21:05:00,52.6,10.3,29.98,North,0,0.0,0.0,18,0.00,,FEW,0.00,VWS V14.01,2013-04-18 04:05:00,
2013-04-17 21:06:00,52.6,9.6,29.98,NNE,23,0.2,0.7,18,0.00,,,0.00,WUHU216HW,2013-04-18 04:06:00,
2013-04-17 21:07:00,52.6,10.3,29.98,NNW,338,0.4,0.4,18,0.00,,FEW,0.00,VWS V14.01,2013-04-18 04:07:00,
2013-04-17 21:08:00,52.6,10.3,29.98,NNW,338,0.0,0.4,18,0.00,,FEW,0.00,VWS V14.01,2013-04-18 04:08:00,
2013-04-17 21:09:00,52.4,10.1,29.98,NNW,338,0.0,0.0,18,0.00,,FEW,0.00,VWS V14.01,2013-04-18 04:09:00,
2013-04-17 21:10:00,52.4,10.1,29.98,North,0,0.4,0.4,18,0.00,,FEW,0.00,VWS V14.01,2013-04-18 04:10:00,
2013-04-17 21:11:00,52.4,9.5,29.98,North,0,0.4,0.4,18,0.00,,,0.00,WUHU216HW,2013-04-18 04:11:00,
2013-04-17 21:12:00,52.2,10.0,29.98,North,0,0.0,0.2,18,0.00,,FEW,0.00,VWS V14.01,2013-04-18 04:12:00,
2013-04-17 21:13:00,52.2,10.0,29.99,NNE,22,0.0,0.0,18,0.00,,FEW,0.00,VWS V14.01,2013-04-18 04:13:00,
2013-04-17 21:14:00,52.2,10.0,29.98,NNE,22,0.0,0.2,18,0.00,,FEW,0.00,VWS V14.01,2013-04-18 04:14:00,
2013-04-17 21:15:00,52.2,10.0,29.99,NNE,22,0.0,0.2,18,0.00,,FEW,0.00,VWS V14.01,2013-04-18 04:15:00,
2013-04-17 21:16:00,52.2,9.4,29.99,NNE,23,0.2,0.4,18,0.00,,,0.00,WUHU216HW,2013-04-18 04:16:00,
2013-04-17 21:17:00,52.2,10.0,29.99,NE,45,0.0,0.0,18,0.00,,FEW,0.00,VWS V14.01,2013-04-18 04:17:00,
2013-04-17 21:18:00,52.2,10.0,29.99,NE,45,0.0,0.0,18,0.00,,FEW,0.00,VWS V14.01,2013-04-18 04:18:00,
2013-04-17 21:19:00,52.2,11.2,29.99,NE,45,0.0,0.0,19,0.00,,FEW,0.00,VWS V14.01,2013-04-18 04:19:00,
2013-04-17 21:20:00,52.0,11.0,29.99,NE,45,0.0,0.0,19,0.00,,FEW,0.00,VWS V14.01,2013-04-18 04:20:00,
2013-04-17 21:21:00,52.0,11.0,29.99,NE,45,0.0,0.0,19,0.00,,FEW,0.00,VWS V14.01,2013-04-18 04:21:00,
2013-04-17 21:22:00,52.0,12.2,29.99,East,90,0.0,0.0,20,0.00,,FEW,0.00,VWS V14.01,2013-04-18 04:22:00,
2013-04-17 21:23:00,52.0,12.2,29.99,East,90,0.0,0.2,20,0.00,,FEW,0.00,VWS V14.01,2013-04-18 04:23:00,
2013-04-17 21:24:00,52.0,12.2,29.99,East,90,0.4,0.4,20,0.00,,FEW,0.00,VWS V14.01,2013-04-18 04:24:00,
2013-04-17 21:25:00,52.2,12.4,29.99,ESE,112,0.2,0.4,20,0.00,,FEW,0.00,VWS V14.01,2013-04-18 04:25:00,
2013-04-17 21:26:00,52.2,12.4,29.99,ESE,112,0.2,0.2,20,0.00,,FEW,0.00,VWS V14.01,2013-04-18 04:26:00,
2013-04-17 21:27:00,52.2,12.4,29.99,East,90,0.0,0.2,20,0.00,,FEW,0.00,VWS V14.01,2013-04-18 04:27:00,
2013-04-17 21:28:00,52.0,12.2,29.99,East,90,0.4,0.7,20,0.00,,FEW,0.00,VWS V14.01,2013-04-18 04:28:00,
2013-04-17 21:29:00,52.0,12.2,29.99,East,90,0.0,0.4,20,0.00,,FEW,0.00,VWS V14.01,2013-04-18 04:29:00,
2013-04-17 21:30:00,51.8,12.0,29.99,East,90,0.0,0.0,20,0.00,,FEW,0.00,VWS V14.01,2013-04-18 04:30:00,
2013-04-17 21:31:00,52.0,12.3,29.99,East,90,0.3,0.7,20,0.00,,,0.00,WUHU216HW,2013-04-18 04:31:00,
2013-04-17 21:32:00,51.8,12.0,29.99,East,90,0.0,0.2,20,0.00,,FEW,0.00,VWS V14.01,2013-04-18 04:32:00,
2013-04-17 21:33:00,51.7,11.9,29.99,East,90,0.0,0.0,20,0.00,,FEW,0.00,VWS V14.01,2013-04-18 04:33:00,
2013-04-17 21:34:00,51.7,11.9,29.99,East,90,0.0,0.0,20,0.00,,FEW,0.00,VWS V14.01,2013-04-18 04:34:00,
2013-04-17 21:35:00,51.7,11.9,29.99,East,90,0.0,0.0,20,0.00,,FEW,0.00,VWS V14.01,2013-04-18 04:35:00,
2013-04-17 21:36:00,51.7,11.9,29.99,East,90,0.0,0.0,20,0.00,,FEW,0.00,VWS V14.01,2013-04-18 04:36:00,
2013-04-17 21:37:00,51.8,13.1,29.99,East,90,0.0,0.0,21,0.00,,FEW,0.00,VWS V14.01,2013-04-18 04:37:00,
2013-04-17 21:38:00,51.7,13.0,29.99,East,90,0.0,0.0,21,0.00,,FEW,0.00,VWS V14.01,2013-04-18 04:38:00,
2013-04-17 21:39:00,51.7,13.0,29.99,East,90,0.0,0.0,21,0.00,,FEW,0.00,VWS V14.01,2013-04-18 04:39:00,
2013-04-17 21:40:00,51.5,12.9,29.99,ESE,112,0.2,0.4,21,0.00,,FEW,0.00,VWS V14.01,2013-04-18 04:40:00,
2013-04-17 21:41:00,51.5,12.9,29.99,ESE,112,0.4,0.4,21,0.00,,FEW,0.00,VWS V14.01,2013-04-18 04:41:00,
2013-04-17 21:42:00,51.3,12.7,29.99,North,0,0.0,0.0,21,0.00,,FEW,0.00,VWS V14.01,2013-04-18 04:42:00,
2013-04-17 21:43:00,51.1,12.5,29.99,North,0,0.0,0.0,21,0.00,,FEW,0.00,VWS V14.01,2013-04-18 04:43:00,
2013-04-17 21:44:00,51.1,12.5,29.99,North,0,0.0,0.0,21,0.00,,FEW,0.00,VWS V14.01,2013-04-18 04:44:00,
2013-04-17 21:45:00,50.9,12.4,29.99,North,0,0.0,0.0,21,0.00,,FEW,0.00,VWS V14.01,2013-04-18 04:45:00,
2013-04-17 21:46:00,51.1,12.5,29.99,North,0,0.0,0.0,21,0.00,,FEW,0.00,VWS V14.01,2013-04-18 04:46:00,
2013-04-17 21:47:00,50.6,12.1,29.99,NNE,22,0.0,0.2,21,0.00,,FEW,0.00,VWS V14.01,2013-04-18 04:47:00,
2013-04-17 21:48:00,50.6,12.1,29.99,NNE,22,0.0,0.0,21,0.00,,FEW,0.00,VWS V14.01,2013-04-18 04:48:00,
2013-04-17 21:49:00,50.4,11.9,29.99,NNE,22,0.0,0.0,21,0.00,,FEW,0.00,VWS V14.01,2013-04-18 04:49:00,
2013-04-17 21:51:00,50.2,11.8,29.99,ENE,68,0.2,0.2,21,0.00,,FEW,0.00,VWS V14.01,2013-04-18 04:51:00,
2013-04-17 21:52:00,50.0,12.7,29.99,East,90,0.2,0.4,22,0.00,,FEW,0.00,VWS V14.01,2013-04-18 04:52:00,
2013-04-17 21:53:00,50.0,12.7,29.99,NNE,22,0.0,0.2,22,0.00,,FEW,0.00,VWS V14.01,2013-04-18 04:53:00,
2013-04-17 21:54:00,49.9,12.6,29.99,SW,225,0.2,0.2,22,0.00,,FEW,0.00,VWS V14.01,2013-04-18 04:54:00,
2013-04-17 21:55:00,49.7,12.4,29.99,ESE,112,0.0,0.2,22,0.00,,FEW,0.00,VWS V14.01,2013-04-18 04:55:00,
2013-04-17 21:56:00,49.7,12.4,29.99,ESE,112,0.0,0.0,22,0.00,,FEW,0.00,VWS V14.01,2013-04-18 04:56:00,
2013-04-17 21:57:00,49.5,12.2,29.99,East,90,0.0,0.0,22,0.00,,FEW,0.00,VWS V14.01,2013-04-18 04:57:00,
2013-04-17 21:58:00,49.3,12.1,29.99,East,90,0.0,0.0,22,0.00,,FEW,0.00,VWS V14.01,2013-04-18 04:58:00,
2013-04-17 21:59:00,49.3,12.1,29.99,East,90,0.0,0.0,22,0.00,,FEW,0.00,VWS V14.01,2013-04-18 04:59:00,
2013-04-17 22:00:00,49.1,11.9,29.99,ENE,68,0.4,0.4,22,0.00,,FEW,0.00,VWS V14.01,2013-04-18 05:00:00,
2013-04-17 22:01:00,49.1,11.7,29.99,ENE,70,0.4,0.4,22,0.00,,,0.00,WUHU216HW,2013-04-18 05:01:00,
2013-04-17 22:02:00,49.0,11.8,29.99,ENE,68,0.0,0.0,22,0.00,,FEW,0.00,VWS V14.01,2013-04-18 05:02:00,
2013-04-17 22:03:00,48.8,11.7,29.99,ENE,68,0.0,0.0,22,0.00,,FEW,0.00,VWS V14.01,2013-04-18 05:03:00,
2013-04-17 22:04:00,48.8,11.7,29.99,ENE,68,0.0,0.0,22,0.00,,FEW,0.00,VWS V14.01,2013-04-18 05:04:00,
2013-04-17 22:05:00,48.8,11.7,29.99,ENE,68,0.0,0.0,22,0.00,,FEW,0.00,VWS V14.01,2013-04-18 05:05:00,
2013-04-17 22:06:00,48.8,12.2,29.99,NE,45,0.0,0.4,23,0.00,,,0.00,WUHU216HW,2013-04-18 05:06:00,
2013-04-17 22:07:00,48.8,12.7,29.99,NE,45,0.0,0.0,23,0.00,,FEW,0.00,VWS V14.01,2013-04-18 05:07:00,
2013-04-17 22:08:00,48.6,12.5,29.99,NE,45,0.0,0.0,23,0.00,,FEW,0.00,VWS V14.01,2013-04-18 05:08:00,
2013-04-17 22:09:00,48.6,12.5,29.99,NE,45,0.0,0.0,23,0.00,,FEW,0.00,VWS V14.01,2013-04-18 05:09:00,
2013-04-17 22:10:00,48.4,12.3,29.99,NE,45,0.0,0.0,23,0.00,,FEW,0.00,VWS V14.01,2013-04-18 05:10:00,
2013-04-17 22:11:00,48.4,13.3,29.99,NE,45,0.0,0.0,24,0.00,,FEW,0.00,VWS V14.01,2013-04-18 05:11:00,
2013-04-17 22:12:00,48.2,13.1,29.99,NNE,22,0.4,0.4,24,0.00,,FEW,0.00,VWS V14.01,2013-04-18 05:12:00,
2013-04-17 22:13:00,48.1,13.0,29.99,NNE,22,0.0,0.4,24,0.00,,FEW,0.00,VWS V14.01,2013-04-18 05:13:00,
2013-04-17 22:14:00,47.9,12.9,29.99,NNE,22,0.0,0.0,24,0.00,,FEW,0.00,VWS V14.01,2013-04-18 05:14:00,
2013-04-17 22:15:00,47.9,12.9,29.99,NNE,22,0.0,0.0,24,0.00,,FEW,0.00,VWS V14.01,2013-04-18 05:15:00,
2013-04-17 22:16:00,47.9,12.9,29.99,NNE,22,0.0,0.0,24,0.00,,FEW,0.00,VWS V14.01,2013-04-18 05:16:00,
2013-04-17 22:17:00,47.7,12.7,29.99,NNE,22,0.0,0.0,24,0.00,,FEW,0.00,VWS V14.01,2013-04-18 05:17:00,
2013-04-17 22:18:00,47.5,13.4,29.99,North,0,0.0,0.0,25,0.00,,FEW,0.00,VWS V14.01,2013-04-18 05:18:00,
2013-04-17 22:19:00,47.5,12.5,29.99,NE,45,0.4,0.4,24,0.00,,FEW,0.00,VWS V14.01,2013-04-18 05:19:00,
2013-04-17 22:20:00,47.3,12.4,29.99,NE,45,0.0,0.0,24,0.00,,FEW,0.00,VWS V14.01,2013-04-18 05:20:00,
2013-04-17 22:21:00,47.2,12.3,29.99,NE,45,0.0,0.0,24,0.00,,FEW,0.00,VWS V14.01,2013-04-18 05:21:00,
2013-04-17 22:22:00,47.2,12.3,29.99,NE,45,0.0,0.0,24,0.00,,FEW,0.00,VWS V14.01,2013-04-18 05:22:00,
2013-04-17 22:23:00,47.2,13.2,29.99,North,0,0.2,0.2,25,0.00,,FEW,0.00,VWS V14.01,2013-04-18 05:23:00,
2013-04-17 22:24:00,47.0,13.0,29.99,North,0,0.0,0.2,25,0.00,,FEW,0.00,VWS V14.01,2013-04-18 05:24:00,
2013-04-17 22:25:00,46.8,12.9,29.99,North,0,0.0,0.0,25,0.00,,FEW,0.00,VWS V14.01,2013-04-18 05:25:00,
2013-04-17 22:26:00,46.8,12.9,29.99,North,0,0.0,0.0,25,0.00,,FEW,0.00,VWS V14.01,2013-04-18 05:26:00,
2013-04-17 22:27:00,46.8,12.9,29.99,North,0,0.0,0.0,25,0.00,,FEW,0.00,VWS V14.01,2013-04-18 05:27:00,
2013-04-17 22:28:00,46.8,12.9,29.99,North,0,0.0,0.0,25,0.00,,FEW,0.00,VWS V14.01,2013-04-18 05:28:00,
2013-04-17 22:29:00,46.6,12.7,29.99,North,0,0.0,0.0,25,0.00,,FEW,0.00,VWS V14.01,2013-04-18 05:29:00,
2013-04-17 22:30:00,46.6,12.7,29.99,North,0,0.2,0.2,25,0.00,,FEW,0.00,VWS V14.01,2013-04-18 05:30:00,
2013-04-17 22:31:00,46.6,12.7,29.99,North,0,0.2,0.2,25,0.00,,FEW,0.00,VWS V14.01,2013-04-18 05:31:00,
2013-04-17 22:32:00,46.4,12.5,29.99,North,0,0.0,0.2,25,0.00,,FEW,0.00,VWS V14.01,2013-04-18 05:32:00,
2013-04-17 22:33:00,46.4,12.5,29.99,North,0,0.0,0.0,25,0.00,,FEW,0.00,VWS V14.01,2013-04-18 05:33:00,
2013-04-17 22:34:00,46.4,12.5,29.99,North,0,0.0,0.0,25,0.00,,FEW,0.00,VWS V14.01,2013-04-18 05:34:00,
2013-04-17 22:35:00,46.3,13.9,29.99,East,90,0.2,0.2,27,0.00,,,0.00,WUHU216HW,2013-04-18 05:35:00,
2013-04-17 22:36:00,46.3,14.2,29.99,East,90,0.0,0.2,27,0.00,,FEW,0.00,VWS V14.01,2013-04-18 05:36:00,
2013-04-17 22:37:00,46.4,14.2,29.99,East,90,0.0,0.0,27,0.00,,FEW,0.00,VWS V14.01,2013-04-18 05:37:00,
2013-04-17 22:38:00,46.4,14.2,29.99,East,90,0.0,0.0,27,0.00,,FEW,0.00,VWS V14.01,2013-04-18 05:38:00,
2013-04-17 22:39:00,46.6,14.4,29.99,NNE,22,0.0,0.0,27,0.00,,FEW,0.00,VWS V14.01,2013-04-18 05:39:00,
2013-04-17 22:40:00,46.6,14.4,29.99,NNE,22,0.0,0.0,27,0.00,,FEW,0.00,VWS V14.01,2013-04-18 05:40:00,
2013-04-17 22:41:00,46.6,14.4,29.99,NNE,22,0.0,0.0,27,0.00,,FEW,0.00,VWS V14.01,2013-04-18 05:41:00,
2013-04-17 22:42:00,46.4,14.2,29.99,NNE,22,0.0,0.0,27,0.00,,FEW,0.00,VWS V14.01,2013-04-18 05:42:00,
2013-04-17 22:43:00,46.4,14.2,29.99,NNE,22,0.4,0.4,27,0.00,,FEW,0.00,VWS V14.01,2013-04-18 05:43:00,
2013-04-17 22:44:00,46.4,14.2,29.99,NNE,22,0.0,0.4,27,0.00,,FEW,0.00,VWS V14.01,2013-04-18 05:44:00,
2013-04-17 22:45:00,46.3,14.2,29.99,NNE,22,0.0,0.0,27,0.00,,FEW,0.00,VWS V14.01,2013-04-18 05:45:00,
2013-04-17 22:46:00,46.1,14.0,29.99,East,90,0.2,0.2,27,0.00,,FEW,0.00,VWS V14.01,2013-04-18 05:46:00,
2013-04-17 22:47:00,46.1,14.0,29.99,ESE,112,0.4,0.4,27,0.00,,FEW,0.00,VWS V14.01,2013-04-18 05:47:00,
2013-04-17 22:48:00,46.1,14.0,29.99,East,90,0.2,0.4,27,0.00,,FEW,0.00,VWS V14.01,2013-04-18 05:48:00,
2013-04-17 22:49:00,46.3,14.2,29.99,East,90,0.0,0.4,27,0.00,,FEW,0.00,VWS V14.01,2013-04-18 05:49:00,
2013-04-17 22:50:00,46.4,14.0,29.99,East,90,0.3,0.4,27,0.00,,,0.00,WUHU216HW,2013-04-18 05:50:00,
2013-04-17 22:51:00,46.4,14.2,29.99,WNW,292,0.0,0.0,27,0.00,,FEW,0.00,VWS V14.01,2013-04-18 05:51:00,
2013-04-17 22:52:00,46.4,14.2,29.99,WNW,292,0.0,0.0,27,0.00,,FEW,0.00,VWS V14.01,2013-04-18 05:52:00,
2013-04-17 22:53:00,46.3,14.2,29.99,ESE,112,0.0,0.0,27,0.00,,FEW,0.00,VWS V14.01,2013-04-18 05:53:00,
2013-04-17 22:54:00,46.3,14.2,29.99,ESE,112,0.4,0.4,27,0.00,,FEW,0.00,VWS V14.01,2013-04-18 05:54:00,
2013-04-17 22:55:00,46.3,13.9,29.99,WNW,293,0.7,0.7,27,0.00,,,0.00,WUHU216HW,2013-04-18 05:55:00,
2013-04-17 22:56:00,46.3,14.2,29.99,WNW,292,0.4,0.9,27,0.00,,FEW,0.00,VWS V14.01,2013-04-18 05:56:00,
2013-04-17 22:57:00,46.3,14.2,29.99,WNW,292,0.0,0.4,27,0.00,,FEW,0.00,VWS V14.01,2013-04-18 05:57:00,
2013-04-17 22:58:00,46.1,14.0,29.99,WNW,292,0.0,0.0,27,0.00,,FEW,0.00,VWS V14.01,2013-04-18 05:58:00,
2013-04-17 22:59:00,46.1,14.0,29.99,WNW,292,0.0,0.0,27,0.00,,FEW,0.00,VWS V14.01,2013-04-18 05:59:00,
2013-04-17 23:00:00,45.9,13.8,29.99,WNW,292,0.0,0.0,27,0.00,,FEW,0.00,VWS V14.01,2013-04-18 06:00:00,
2013-04-17 23:01:00,45.9,13.8,29.99,NNW,338,0.0,0.0,27,0.00,,FEW,0.00,VWS V14.01,2013-04-18 06:01:00,
2013-04-17 23:02:00,45.7,13.6,29.99,ENE,68,0.4,0.4,27,0.00,,FEW,0.00,VWS V14.01,2013-04-18 06:02:00,
2013-04-17 23:03:00,45.7,13.6,29.99,ESE,112,0.0,0.4,27,0.00,,FEW,0.00,VWS V14.01,2013-04-18 06:03:00,
2013-04-17 23:04:00,45.9,14.6,29.99,ESE,112,0.0,0.2,28,0.00,,FEW,0.00,VWS V14.01,2013-04-18 06:04:00,
2013-04-17 23:05:00,45.9,13.8,29.99,ESE,112,0.0,0.0,27,0.00,,FEW,0.00,VWS V14.01,2013-04-18 06:05:00,
2013-04-17 23:06:00,46.1,14.0,29.99,ESE,112,0.0,0.0,27,0.00,,FEW,0.00,VWS V14.01,2013-04-18 06:06:00,
2013-04-17 23:07:00,46.1,14.0,29.99,ESE,112,0.0,0.0,27,0.00,,FEW,0.00,VWS V14.01,2013-04-18 06:07:00,
2013-04-17 23:08:00,46.1,14.8,29.99,ESE,112,0.0,0.4,28,0.00,,FEW,0.00,VWS V14.01,2013-04-18 06:08:00,
2013-04-17 23:09:00,46.1,14.8,29.99,ESE,112,0.0,0.2,28,0.00,,FEW,0.00,VWS V14.01,2013-04-18 06:09:00,
2013-04-17 23:10:00,46.1,14.0,29.99,North,0,0.7,0.7,27,0.00,,FEW,0.00,VWS V14.01,2013-04-18 06:10:00,
2013-04-17 23:11:00,46.1,14.8,29.99,North,0,0.4,0.7,28,0.00,,FEW,0.00,VWS V14.01,2013-04-18 06:11:00,
2013-04-17 23:12:00,46.1,14.0,29.99,ENE,68,0.0,0.4,27,0.00,,FEW,0.00,VWS V14.01,2013-04-18 06:12:00,
2013-04-17 23:13:00,46.1,14.0,29.99,ENE,68,0.0,0.2,27,0.00,,FEW,0.00,VWS V14.01,2013-04-18 06:13:00,
2013-04-17 23:14:00,46.3,14.2,29.99,ENE,68,0.0,0.0,27,0.00,,FEW,0.00,VWS V14.01,2013-04-18 06:14:00,
2013-04-17 23:15:00,46.3,14.2,29.99,ENE,68,0.0,0.0,27,0.00,,FEW,0.00,VWS V14.01,2013-04-18 06:15:00,
2013-04-17 23:16:00,46.4,14.2,29.99,ENE,68,0.0,0.0,27,0.00,,FEW,0.00,VWS V14.01,2013-04-18 06:16:00,
2013-04-17 23:17:00,46.4,14.2,29.99,ENE,68,0.0,0.0,27,0.00,,FEW,0.00,VWS V14.01,2013-04-18 06:17:00,
2013-04-17 23:18:00,46.8,14.6,29.99,ESE,112,1.1,1.1,27,0.00,,FEW,0.00,VWS V14.01,2013-04-18 06:18:00,
2013-04-17 23:19:00,47.0,14.8,29.99,ESE,112,1.3,1.3,27,0.00,,FEW,0.00,VWS V14.01,2013-04-18 06:19:00,
2013-04-17 23:20:00,47.2,14.6,29.99,ESE,122,0.9,1.3,27,0.00,,,0.00,WUHU216HW,2013-04-18 06:20:00,
2013-04-17 23:21:00,47.5,14.3,29.99,NE,45,0.2,0.7,26,0.00,,FEW,0.00,VWS V14.01,2013-04-18 06:21:00,
2013-04-17 23:22:00,47.7,13.6,29.99,ENE,68,0.4,1.1,25,0.00,,FEW,0.00,VWS V14.01,2013-04-18 06:22:00,
2013-04-17 23:23:00,48.1,14.0,29.99,SSW,202,0.4,0.4,25,0.00,,FEW,0.00,VWS V14.01,2013-04-18 06:23:00,
2013-04-17 23:24:00,48.2,14.0,29.99,SSE,158,0.2,0.4,25,0.00,,FEW,0.00,VWS V14.01,2013-04-18 06:24:00,
2013-04-17 23:25:00,48.4,13.9,29.99,ESE,113,0.4,1.3,25,0.00,,,0.00,WUHU216HW,2013-04-18 06:25:00,
2013-04-17 23:26:00,48.6,14.4,29.99,ESE,112,0.2,0.4,25,0.00,,FEW,0.00,VWS V14.01,2013-04-18 06:26:00,
2013-04-17 23:27:00,48.6,14.4,29.99,NE,45,0.4,0.4,25,0.00,,FEW,0.00,VWS V14.01,2013-04-18 06:27:00,
2013-04-17 23:28:00,48.6,14.4,29.99,NE,45,0.0,0.4,25,0.00,,FEW,0.00,VWS V14.01,2013-04-18 06:28:00,
2013-04-17 23:29:00,48.6,14.4,29.99,ESE,112,0.0,0.0,25,0.00,,FEW,0.00,VWS V14.01,2013-04-18 06:29:00,
2013-04-17 23:30:00,48.6,14.0,29.99,ESE,113,0.4,1.1,25,0.00,,,0.00,WUHU216HW,2013-04-18 06:30:00,
2013-04-17 23:31:00,48.6,14.4,29.99,ENE,68,0.4,0.4,25,0.00,,FEW,0.00,VWS V14.01,2013-04-18 06:31:00,
2013-04-17 23:32:00,48.6,14.4,29.99,NE,45,0.4,0.4,25,0.00,,FEW,0.00,VWS V14.01,2013-04-18 06:32:00,
2013-04-17 23:33:00,48.8,14.6,29.99,ENE,68,0.4,0.4,25,0.00,,FEW,0.00,VWS V14.01,2013-04-18 06:33:00,
2013-04-17 23:34:00,48.8,14.6,29.99,ENE,68,0.4,0.4,25,0.00,,FEW,0.00,VWS V14.01,2013-04-18 06:34:00,
2013-04-17 23:35:00,48.8,13.2,29.99,East,90,1.3,1.8,24,0.00,,,0.00,WUHU216HW,2013-04-18 06:35:00,
2013-04-17 23:36:00,49.0,13.8,29.99,East,90,0.4,0.7,24,0.00,,FEW,0.00,VWS V14.01,2013-04-18 06:36:00,
2013-04-17 23:37:00,49.0,13.8,29.99,SE,135,0.4,0.4,24,0.00,,FEW,0.00,VWS V14.01,2013-04-18 06:37:00,
2013-04-17 23:38:00,49.0,13.8,29.99,West,270,0.0,0.7,24,0.00,,FEW,0.00,VWS V14.01,2013-04-18 06:38:00,
2013-04-17 23:39:00,49.0,13.8,29.99,West,270,0.0,0.0,24,0.00,,FEW,0.00,VWS V14.01,2013-04-18 06:39:00,
2013-04-17 23:40:00,49.0,13.8,29.99,NW,315,0.0,0.0,24,0.00,,FEW,0.00,VWS V14.01,2013-04-18 06:40:00,
2013-04-17 23:41:00,48.8,13.6,29.99,North,0,0.0,0.4,24,0.00,,FEW,0.00,VWS V14.01,2013-04-18 06:41:00,
2013-04-17 23:42:00,48.6,13.5,29.99,ENE,68,0.4,0.4,24,0.00,,FEW,0.00,VWS V14.01,2013-04-18 06:42:00,
2013-04-17 23:43:00,48.6,13.5,29.99,ENE,68,0.2,0.7,24,0.00,,FEW,0.00,VWS V14.01,2013-04-18 06:43:00,
2013-04-17 23:44:00,48.4,13.3,29.99,ENE,68,0.0,0.2,24,0.00,,FEW,0.00,VWS V14.01,2013-04-18 06:44:00,
2013-04-17 23:45:00,48.6,13.5,29.99,ENE,68,0.0,0.0,24,0.00,,FEW,0.00,VWS V14.01,2013-04-18 06:45:00,
2013-04-17 23:46:00,48.6,13.5,29.99,ESE,112,0.2,0.7,24,0.00,,FEW,0.00,VWS V14.01,2013-04-18 06:46:00,
2013-04-17 23:47:00,48.6,13.5,29.99,ESE,112,0.0,0.2,24,0.00,,FEW,0.00,VWS V14.01,2013-04-18 06:47:00,
2013-04-17 23:48:00,48.6,14.4,29.99,ESE,112,0.0,0.0,25,0.00,,FEW,0.00,VWS V14.01,2013-04-18 06:48:00,
2013-04-17 23:49:00,48.6,13.5,29.99,ESE,112,0.0,0.0,24,0.00,,FEW,0.00,VWS V14.01,2013-04-18 06:49:00,
2013-04-17 23:50:00,48.6,14.4,29.99,ESE,112,0.0,0.0,25,0.00,,FEW,0.00,VWS V14.01,2013-04-18 06:50:00,
2013-04-17 23:51:00,48.6,13.5,29.99,East,90,0.0,0.0,24,0.00,,FEW,0.00,VWS V14.01,2013-04-18 06:51:00,
2013-04-17 23:52:00,48.6,13.5,29.99,East,90,0.0,0.4,24,0.00,,FEW,0.00,VWS V14.01,2013-04-18 06:52:00,
2013-04-17 23:53:00,48.6,13.5,29.99,NNE,22,0.4,0.4,24,0.00,,FEW,0.00,VWS V14.01,2013-04-18 06:53:00,
2013-04-17 23:54:00,48.6,13.5,29.99,NNE,22,0.0,0.4,24,0.00,,FEW,0.00,VWS V14.01,2013-04-18 06:54:00,
2013-04-17 23:55:00,48.6,13.5,29.99,NNE,22,0.2,0.2,24,0.00,,FEW,0.00,VWS V14.01,2013-04-18 06:55:00,
2013-04-17 23:56:00,48.6,13.5,29.99,NE,45,0.0,0.2,24,0.00,,FEW,0.00,VWS V14.01,2013-04-18 06:56:00,
2013-04-17 23:57:00,48.6,13.5,29.99,NE,45,0.2,0.2,24,0.00,,FEW,0.00,VWS V14.01,2013-04-18 06:57:00,
2013-04-17 23:58:00,48.6,13.5,29.99,NE,45,0.0,0.2,24,0.00,,FEW,0.00,VWS V14.01,2013-04-18 06:58:00,
2013-04-17 23:59:00,48.6,13.5,29.99,East,90,0.4,0.4,24,0.00,,FEW,0.00,VWS V14.01,2013-04-18 06:59:00,